Time,TemperatureF,DewpointF,PressureIn,WindDirection,WindDirectionDegrees,WindSpeedMPH,WindSpeedGustMPH,Humidity,HourlyPrecipIn,Conditions,Clouds,dailyrainin,SoftwareType,DateUTC
2013-09-11 00:00:00,73.4,63.4,29.29,WSW,250,0.0,0.0,71,0.00,,---,0.00,VWS V14.00,2013-09-11 05:00:00,
2013-09-11 00:01:00,73.4,63.4,29.29,WSW,250,0.0,0.0,71,0.00,,---,0.00,VWS V14.00,2013-09-11 05:01:00,
2013-09-11 00:02:00,73.4,63.4,29.29,WSW,250,0.0,0.0,71,0.00,,---,0.00,VWS V14.00,2013-09-11 05:02:00,
2013-09-11 00:03:00,73.4,63.4,29.29,WSW,250,0.0,0.0,71,0.00,,---,0.00,VWS V14.00,2013-09-11 05:03:00,
2013-09-11 00:04:00,73.4,63.4,29.29,WSW,250,0.0,0.0,71,0.00,,---,0.00,VWS V14.00,2013-09-11 05:04:00,
2013-09-11 00:05:00,73.4,63.4,29.29,WSW,250,0.0,0.0,71,0.00,,---,0.00,VWS V14.00,2013-09-11 05:05:00,
2013-09-11 00:06:00,73.4,63.4,29.29,WSW,250,0.0,0.0,71,0.00,,---,0.00,VWS V14.00,2013-09-11 05:06:00,
2013-09-11 00:07:00,73.4,63.4,29.29,WSW,250,0.0,0.0,71,0.00,,---,0.00,VWS V14.00,2013-09-11 05:07:00,
2013-09-11 00:08:00,73.4,63.4,29.29,WSW,250,0.0,0.0,71,0.00,,---,0.00,VWS V14.00,2013-09-11 05:08:00,
2013-09-11 00:09:00,73.4,63.4,29.29,WSW,250,0.0,0.0,71,0.00,,---,0.00,VWS V14.00,2013-09-11 05:09:00,
2013-09-11 00:10:00,73.4,63.4,29.29,WSW,250,0.0,0.0,71,0.00,,---,0.00,VWS V14.00,2013-09-11 05:10:00,
2013-09-11 00:11:00,73.4,63.4,29.29,WSW,250,0.0,0.0,71,0.00,,---,0.00,VWS V14.00,2013-09-11 05:11:00,
2013-09-11 00:12:00,73.4,63.4,29.29,WSW,250,0.0,0.0,71,0.00,,---,0.00,VWS V14.00,2013-09-11 05:12:00,
2013-09-11 00:13:00,73.4,63.4,29.29,WSW,250,0.0,0.0,71,0.00,,---,0.00,VWS V14.00,2013-09-11 05:13:00,
2013-09-11 00:14:00,73.4,63.4,29.29,WSW,250,0.0,0.0,71,0.00,,---,0.00,VWS V14.00,2013-09-11 05:14:00,
2013-09-11 00:15:00,73.4,63.4,29.29,WSW,250,0.0,0.0,71,0.00,,---,0.00,VWS V14.00,2013-09-11 05:15:00,
2013-09-11 00:16:00,73.4,63.4,29.29,WSW,250,0.0,0.0,71,0.00,,---,0.00,VWS V14.00,2013-09-11 05:16:00,
2013-09-11 00:17:00,73.4,63.4,29.29,WSW,250,0.0,0.0,71,0.00,,---,0.00,VWS V14.00,2013-09-11 05:17:00,
2013-09-11 00:18:00,73.4,63.4,29.29,WSW,250,0.0,0.0,71,0.00,,---,0.00,VWS V14.00,2013-09-11 05:18:00,
2013-09-11 00:19:00,72.7,63.1,29.29,WSW,250,0.0,0.0,72,0.00,,---,0.00,VWS V14.00,2013-09-11 05:19:00,
2013-09-11 00:20:00,72.7,63.1,29.29,WSW,250,0.0,0.0,72,0.00,,---,0.00,VWS V14.00,2013-09-11 05:20:00,
2013-09-11 00:21:00,72.7,63.1,29.29,WSW,250,0.0,0.0,72,0.00,,---,0.00,VWS V14.00,2013-09-11 05:21:00,
2013-09-11 00:22:00,72.7,63.1,29.29,WSW,250,0.0,0.0,72,0.00,,---,0.00,VWS V14.00,2013-09-11 05:22:00,
2013-09-11 00:23:00,72.7,63.1,29.29,WSW,250,0.0,0.0,72,0.00,,---,0.00,VWS V14.00,2013-09-11 05:23:00,
2013-09-11 00:24:00,72.7,63.1,29.29,WSW,250,0.0,0.0,72,0.00,,---,0.00,VWS V14.00,2013-09-11 05:24:00,
2013-09-11 00:25:00,72.7,63.1,29.29,WSW,250,0.0,0.0,72,0.00,,---,0.00,VWS V14.00,2013-09-11 05:25:00,
2013-09-11 00:26:00,72.7,63.1,29.29,WSW,250,0.0,0.0,72,0.00,,---,0.00,VWS V14.00,2013-09-11 05:26:00,
2013-09-11 00:27:00,72.7,63.1,29.29,WSW,250,0.0,0.0,72,0.00,,---,0.00,VWS V14.00,2013-09-11 05:27:00,
2013-09-11 00:28:00,72.7,63.1,29.29,WSW,250,0.0,0.0,72,0.00,,---,0.00,VWS V14.00,2013-09-11 05:28:00,
2013-09-11 00:29:00,72.7,63.1,29.29,WSW,250,0.0,0.0,72,0.00,,---,0.00,VWS V14.00,2013-09-11 05:29:00,
2013-09-11 00:30:00,72.7,63.1,29.29,WSW,250,0.0,0.0,72,0.00,,---,0.00,VWS V14.00,2013-09-11 05:30:00,
2013-09-11 00:31:00,72.7,63.1,29.29,WSW,250,0.0,0.0,72,0.00,,---,0.00,VWS V14.00,2013-09-11 05:31:00,
2013-09-11 00:32:00,72.7,63.1,29.29,WSW,250,0.0,0.0,72,0.00,,---,0.00,VWS V14.00,2013-09-11 05:32:00,
2013-09-11 00:33:00,72.7,63.1,29.29,WSW,250,0.0,0.0,72,0.00,,---,0.00,VWS V14.00,2013-09-11 05:33:00,
2013-09-11 00:34:00,72.7,63.1,29.29,WSW,250,0.0,0.0,72,0.00,,---,0.00,VWS V14.00,2013-09-11 05:34:00,
2013-09-11 00:35:00,72.9,63.7,29.29,WSW,250,0.0,0.0,73,0.00,,---,0.00,VWS V14.00,2013-09-11 05:35:00,
2013-09-11 00:36:00,72.9,63.7,29.29,WSW,250,0.0,0.0,73,0.00,,---,0.00,VWS V14.00,2013-09-11 05:36:00,
2013-09-11 00:37:00,72.9,63.7,29.29,WSW,256,0.0,0.0,73,0.00,,---,0.00,VWS V14.00,2013-09-11 05:37:00,
2013-09-11 00:38:00,72.9,63.7,29.29,WSW,256,0.0,0.0,73,0.00,,---,0.00,VWS V14.00,2013-09-11 05:38:00,
2013-09-11 00:39:00,72.9,63.7,29.29,WSW,256,0.0,0.0,73,0.00,,---,0.00,VWS V14.00,2013-09-11 05:39:00,
2013-09-11 00:40:00,72.9,63.7,29.29,WSW,256,0.0,0.0,73,0.00,,---,0.00,VWS V14.00,2013-09-11 05:40:00,
2013-09-11 00:41:00,72.9,63.7,29.29,WSW,256,0.0,0.0,73,0.00,,---,0.00,VWS V14.00,2013-09-11 05:41:00,
2013-09-11 00:42:00,72.9,63.7,29.29,WSW,256,0.0,0.0,73,0.00,,---,0.00,VWS V14.00,2013-09-11 05:42:00,
2013-09-11 00:43:00,72.9,63.7,29.29,WSW,256,0.0,0.0,73,0.00,,---,0.00,VWS V14.00,2013-09-11 05:43:00,
2013-09-11 00:44:00,72.9,63.7,29.29,WSW,256,0.0,0.0,73,0.00,,---,0.00,VWS V14.00,2013-09-11 05:44:00,
2013-09-11 00:45:00,72.9,63.7,29.29,WSW,256,0.0,0.0,73,0.00,,---,0.00,VWS V14.00,2013-09-11 05:45:00,
2013-09-11 00:46:00,72.9,63.3,29.29,WSW,256,0.0,0.0,72,0.00,,---,0.00,VWS V14.00,2013-09-11 05:46:00,
2013-09-11 00:47:00,72.9,63.3,29.29,WSW,256,0.0,0.0,72,0.00,,---,0.00,VWS V14.00,2013-09-11 05:47:00,
2013-09-11 00:48:00,72.9,63.3,29.29,WSW,257,0.0,0.0,72,0.00,,---,0.00,VWS V14.00,2013-09-11 05:48:00,
2013-09-11 00:49:00,72.9,63.3,29.29,WSW,247,0.0,0.0,72,0.00,,---,0.00,VWS V14.00,2013-09-11 05:49:00,
2013-09-11 00:50:00,72.9,63.3,29.29,WSW,247,0.0,0.0,72,0.00,,---,0.00,VWS V14.00,2013-09-11 05:50:00,
2013-09-11 00:51:00,72.9,63.3,29.29,WSW,247,0.0,0.0,72,0.00,,---,0.00,VWS V14.00,2013-09-11 05:51:00,
2013-09-11 00:52:00,72.9,63.3,29.29,WSW,247,0.0,0.0,72,0.00,,---,0.00,VWS V14.00,2013-09-11 05:52:00,
2013-09-11 00:53:00,72.9,63.3,29.29,WSW,247,0.0,0.0,72,0.00,,---,0.00,VWS V14.00,2013-09-11 05:53:00,
2013-09-11 00:54:00,72.9,63.3,29.29,WSW,247,0.0,0.0,72,0.00,,---,0.00,VWS V14.00,2013-09-11 05:54:00,
2013-09-11 00:55:00,72.9,63.3,29.29,WSW,255,3.1,3.1,72,0.00,,---,0.00,VWS V14.00,2013-09-11 05:55:00,
2013-09-11 00:56:00,72.9,63.3,29.29,WSW,255,3.1,3.1,72,0.00,,---,0.00,VWS V14.00,2013-09-11 05:56:00,
2013-09-11 00:57:00,72.9,63.3,29.29,WSW,255,3.1,3.1,72,0.00,,---,0.00,VWS V14.00,2013-09-11 05:57:00,
2013-09-11 00:58:00,72.9,63.3,29.29,West,274,0.0,3.1,72,0.00,,---,0.00,VWS V14.00,2013-09-11 05:58:00,
2013-09-11 00:59:00,72.9,63.3,29.29,West,274,0.0,0.0,72,0.00,,---,0.00,VWS V14.00,2013-09-11 05:59:00,
2013-09-11 01:00:00,72.9,63.3,29.29,WNW,302,0.0,0.0,72,0.00,,---,0.00,VWS V14.00,2013-09-11 06:00:00,
2013-09-11 01:01:00,72.9,63.3,29.29,West,276,0.0,0.0,72,0.00,,---,0.00,VWS V14.00,2013-09-11 06:01:00,
2013-09-11 01:02:00,72.9,63.3,29.29,West,276,0.0,0.0,72,0.00,,---,0.00,VWS V14.00,2013-09-11 06:02:00,
2013-09-11 01:03:00,72.9,63.3,29.29,West,276,0.0,0.0,72,0.00,,---,0.00,VWS V14.00,2013-09-11 06:03:00,
2013-09-11 01:04:00,72.9,63.3,29.29,West,264,2.7,2.7,72,0.00,,---,0.00,VWS V14.00,2013-09-11 06:04:00,
2013-09-11 01:05:00,72.9,63.3,29.29,West,264,2.2,2.7,72,0.00,,---,0.00,VWS V14.00,2013-09-11 06:05:00,
2013-09-11 01:06:00,72.9,63.3,29.29,West,264,2.2,2.2,72,0.00,,---,0.00,VWS V14.00,2013-09-11 06:06:00,
2013-09-11 01:07:00,72.9,63.3,29.29,West,264,0.0,2.2,72,0.00,,---,0.00,VWS V14.00,2013-09-11 06:07:00,
2013-09-11 01:08:00,72.9,63.3,29.29,West,264,0.0,0.0,72,0.00,,---,0.00,VWS V14.00,2013-09-11 06:08:00,
2013-09-11 01:09:00,72.9,63.3,29.29,West,266,4.0,4.0,72,0.00,,---,0.00,VWS V14.00,2013-09-11 06:09:00,
2013-09-11 01:10:00,72.9,63.3,29.29,West,266,4.0,4.0,72,0.00,,---,0.00,VWS V14.00,2013-09-11 06:10:00,
2013-09-11 01:11:00,72.9,63.3,29.29,West,266,4.0,4.0,72,0.00,,---,0.00,VWS V14.00,2013-09-11 06:11:00,
2013-09-11 01:12:00,72.9,63.3,29.29,NW,311,0.0,4.0,72,0.00,,---,0.00,VWS V14.00,2013-09-11 06:12:00,
2013-09-11 01:13:00,72.9,63.3,29.29,NW,311,0.0,0.0,72,0.00,,---,0.00,VWS V14.00,2013-09-11 06:13:00,
2013-09-11 01:14:00,72.9,63.3,29.29,NW,311,0.0,0.0,72,0.00,,---,0.00,VWS V14.00,2013-09-11 06:14:00,
2013-09-11 01:15:00,72.9,63.3,29.29,NW,312,0.0,0.0,72,0.00,,---,0.00,VWS V14.00,2013-09-11 06:15:00,
2013-09-11 01:16:00,72.7,63.1,29.29,West,268,0.0,0.0,72,0.00,,---,0.00,VWS V14.00,2013-09-11 06:16:00,
2013-09-11 01:17:00,72.7,63.1,29.29,West,268,0.0,0.0,72,0.00,,---,0.00,VWS V14.00,2013-09-11 06:17:00,
2013-09-11 01:18:00,72.7,63.1,29.29,West,268,0.0,0.0,72,0.00,,---,0.00,VWS V14.00,2013-09-11 06:18:00,
2013-09-11 01:19:00,72.7,63.1,29.29,West,268,0.0,0.0,72,0.00,,---,0.00,VWS V14.00,2013-09-11 06:19:00,
2013-09-11 01:20:00,72.7,63.1,29.29,West,268,0.0,0.0,72,0.00,,---,0.00,VWS V14.00,2013-09-11 06:20:00,
2013-09-11 01:21:00,72.7,63.1,29.29,West,268,0.0,0.0,72,0.00,,---,0.00,VWS V14.00,2013-09-11 06:21:00,
2013-09-11 01:22:00,72.7,63.1,29.29,West,268,0.0,0.0,72,0.00,,---,0.00,VWS V14.00,2013-09-11 06:22:00,
2013-09-11 01:23:00,72.7,63.1,29.29,West,268,0.0,0.0,72,0.00,,---,0.00,VWS V14.00,2013-09-11 06:23:00,
2013-09-11 01:24:00,72.7,63.1,29.29,West,268,0.0,0.0,72,0.00,,---,0.00,VWS V14.00,2013-09-11 06:24:00,
2013-09-11 01:25:00,72.7,63.1,29.29,West,268,0.0,0.0,72,0.00,,---,0.00,VWS V14.00,2013-09-11 06:25:00,
2013-09-11 01:26:00,72.7,63.1,29.29,West,268,0.0,0.0,72,0.00,,---,0.00,VWS V14.00,2013-09-11 06:26:00,
2013-09-11 01:27:00,72.7,63.1,29.29,West,268,0.0,0.0,72,0.00,,---,0.00,VWS V14.00,2013-09-11 06:27:00,
2013-09-11 01:28:00,72.5,63.0,29.29,West,268,0.0,0.0,72,0.00,,---,0.00,VWS V14.00,2013-09-11 06:28:00,
2013-09-11 01:29:00,72.5,63.0,29.29,West,268,0.0,0.0,72,0.00,,---,0.00,VWS V14.00,2013-09-11 06:29:00,
2013-09-11 01:30:00,72.5,63.4,29.29,West,268,0.0,0.0,73,0.00,,---,0.00,VWS V14.00,2013-09-11 06:30:00,
2013-09-11 01:31:00,72.5,63.4,29.29,West,268,0.0,0.0,73,0.00,,---,0.00,VWS V14.00,2013-09-11 06:31:00,
2013-09-11 01:32:00,72.5,63.4,29.29,West,268,0.0,0.0,73,0.00,,---,0.00,VWS V14.00,2013-09-11 06:32:00,
2013-09-11 01:33:00,72.5,63.4,29.29,West,268,0.0,0.0,73,0.00,,---,0.00,VWS V14.00,2013-09-11 06:33:00,
2013-09-11 01:34:00,72.5,63.4,29.29,West,268,0.0,0.0,73,0.00,,---,0.00,VWS V14.00,2013-09-11 06:34:00,
2013-09-11 01:35:00,72.5,63.4,29.29,West,268,0.0,0.0,73,0.00,,---,0.00,VWS V14.00,2013-09-11 06:35:00,
2013-09-11 01:36:00,72.5,63.4,29.29,West,268,0.0,0.0,73,0.00,,---,0.00,VWS V14.00,2013-09-11 06:36:00,
2013-09-11 01:37:00,72.5,63.4,29.29,West,268,0.0,0.0,73,0.00,,---,0.00,VWS V14.00,2013-09-11 06:37:00,
2013-09-11 01:38:00,72.5,63.4,29.29,West,268,0.0,0.0,73,0.00,,---,0.00,VWS V14.00,2013-09-11 06:38:00,
2013-09-11 01:39:00,72.5,63.4,29.29,West,268,0.0,0.0,73,0.00,,---,0.00,VWS V14.00,2013-09-11 06:39:00,
2013-09-11 01:40:00,72.5,63.4,29.29,West,268,0.0,0.0,73,0.00,,---,0.00,VWS V14.00,2013-09-11 06:40:00,
2013-09-11 01:41:00,72.5,63.4,29.29,West,268,0.0,0.0,73,0.00,,---,0.00,VWS V14.00,2013-09-11 06:41:00,
2013-09-11 01:42:00,72.5,63.4,29.29,West,268,0.0,0.0,73,0.00,,---,0.00,VWS V14.00,2013-09-11 06:42:00,
2013-09-11 01:43:00,72.5,63.4,29.29,West,268,0.0,0.0,73,0.00,,---,0.00,VWS V14.00,2013-09-11 06:43:00,
2013-09-11 01:44:00,72.5,63.4,29.29,West,268,0.0,0.0,73,0.00,,---,0.00,VWS V14.00,2013-09-11 06:44:00,
2013-09-11 01:45:00,72.5,63.4,29.29,West,268,0.0,0.0,73,0.00,,---,0.00,VWS V14.00,2013-09-11 06:45:00,
2013-09-11 01:46:00,72.3,63.2,29.29,West,268,0.0,0.0,73,0.00,,---,0.00,VWS V14.00,2013-09-11 06:46:00,
2013-09-11 01:47:00,72.3,63.2,29.29,West,268,0.0,0.0,73,0.00,,---,0.00,VWS V14.00,2013-09-11 06:47:00,
2013-09-11 01:48:00,72.3,63.2,29.29,West,268,0.0,0.0,73,0.00,,---,0.00,VWS V14.00,2013-09-11 06:48:00,
2013-09-11 01:49:00,72.1,63.0,29.29,West,268,0.0,0.0,73,0.00,,---,0.00,VWS V14.00,2013-09-11 06:49:00,
2013-09-11 01:50:00,72.1,63.0,29.29,West,268,0.0,0.0,73,0.00,,---,0.00,VWS V14.00,2013-09-11 06:50:00,
2013-09-11 01:51:00,72.1,63.0,29.29,West,268,0.0,0.0,73,0.00,,---,0.00,VWS V14.00,2013-09-11 06:51:00,
2013-09-11 01:52:00,72.1,63.0,29.29,West,268,0.0,0.0,73,0.00,,---,0.00,VWS V14.00,2013-09-11 06:52:00,
2013-09-11 01:53:00,72.1,63.0,29.29,West,268,0.0,0.0,73,0.00,,---,0.00,VWS V14.00,2013-09-11 06:53:00,
2013-09-11 01:54:00,72.0,62.8,29.29,West,268,0.0,0.0,73,0.00,,---,0.00,VWS V14.00,2013-09-11 06:54:00,
2013-09-11 01:55:00,72.0,62.8,29.29,West,268,0.0,0.0,73,0.00,,---,0.00,VWS V14.00,2013-09-11 06:55:00,
2013-09-11 01:56:00,72.0,62.8,29.29,West,268,0.0,0.0,73,0.00,,---,0.00,VWS V14.00,2013-09-11 06:56:00,
2013-09-11 01:57:00,72.0,62.8,29.29,West,268,0.0,0.0,73,0.00,,---,0.00,VWS V14.00,2013-09-11 06:57:00,
2013-09-11 01:58:00,72.0,62.8,29.29,West,268,0.0,0.0,73,0.00,,---,0.00,VWS V14.00,2013-09-11 06:58:00,
2013-09-11 01:59:00,72.0,62.8,29.29,West,268,0.0,0.0,73,0.00,,---,0.00,VWS V14.00,2013-09-11 06:59:00,
2013-09-11 02:00:00,72.0,62.8,29.29,West,268,0.0,0.0,73,0.00,,---,0.00,VWS V14.00,2013-09-11 07:00:00,
2013-09-11 05:24:00,71.4,64.6,29.29,SSW,204,0.0,0.0,79,0.00,,---,0.00,VWS V14.00,2013-09-11 10:24:00,
2013-09-11 05:25:00,71.4,64.6,29.29,SSW,204,0.0,0.0,79,0.00,,---,0.00,VWS V14.00,2013-09-11 10:25:00,
2013-09-11 05:26:00,71.4,64.6,29.29,SSW,204,0.0,0.0,79,0.00,,---,0.00,VWS V14.00,2013-09-11 10:26:00,
2013-09-11 07:36:00,74.5,64.9,29.32,SSW,208,2.2,2.2,72,0.00,,---,0.00,VWS V14.00,2013-09-11 12:36:00,
2013-09-11 07:37:00,74.5,64.9,29.32,West,280,5.8,5.8,72,0.00,,---,0.00,VWS V14.00,2013-09-11 12:37:00,
2013-09-11 07:38:00,74.7,64.6,29.32,SW,214,4.0,5.8,71,0.00,,---,0.00,VWS V14.00,2013-09-11 12:38:00,
2013-09-11 07:39:00,74.7,64.6,29.32,West,276,3.6,4.0,71,0.00,,---,0.00,VWS V14.00,2013-09-11 12:39:00,
2013-09-11 07:40:00,74.7,64.6,29.32,SW,217,3.6,4.9,71,0.00,,---,0.00,VWS V14.00,2013-09-11 12:40:00,
2013-09-11 07:41:00,74.7,64.6,29.32,WSW,252,2.7,3.6,71,0.00,,---,0.00,VWS V14.00,2013-09-11 12:41:00,
2013-09-11 07:42:00,74.5,64.5,29.32,SW,216,3.1,5.8,71,0.00,,---,0.00,VWS V14.00,2013-09-11 12:42:00,
2013-09-11 07:43:00,74.5,64.5,29.32,West,272,3.1,3.6,71,0.00,,---,0.00,VWS V14.00,2013-09-11 12:43:00,
2013-09-11 07:44:00,74.5,64.5,29.32,West,271,7.2,7.2,71,0.00,,---,0.00,VWS V14.00,2013-09-11 12:44:00,
2013-09-11 07:45:00,74.3,64.3,29.32,SW,235,5.8,7.2,71,0.00,,---,0.00,VWS V14.00,2013-09-11 12:45:00,
2013-09-11 07:46:00,74.3,64.3,29.32,West,270,7.2,7.2,71,0.00,,---,0.00,VWS V14.00,2013-09-11 12:46:00,
2013-09-11 07:47:00,74.3,64.3,29.32,WSW,256,3.1,7.2,71,0.00,,---,0.00,VWS V14.00,2013-09-11 12:47:00,
2013-09-11 07:48:00,74.3,64.3,29.32,West,277,3.6,6.3,71,0.00,,---,0.00,VWS V14.00,2013-09-11 12:48:00,
2013-09-11 07:49:00,74.3,64.3,29.32,WSW,258,4.0,4.0,71,0.00,,---,0.00,VWS V14.00,2013-09-11 12:49:00,
2013-09-11 07:50:00,74.3,64.3,29.32,West,267,2.7,4.0,71,0.00,,---,0.00,VWS V14.00,2013-09-11 12:50:00,
2013-09-11 07:51:00,74.3,64.3,29.32,West,259,4.9,8.1,71,0.00,,---,0.00,VWS V14.00,2013-09-11 12:51:00,
2013-09-11 07:52:00,74.3,64.3,29.32,NW,306,4.0,8.1,71,0.00,,---,0.00,VWS V14.00,2013-09-11 12:52:00,
2013-09-11 07:53:00,74.3,64.3,29.32,WSW,249,3.1,4.0,71,0.00,,---,0.00,VWS V14.00,2013-09-11 12:53:00,
2013-09-11 07:54:00,74.5,64.5,29.32,West,273,6.3,6.3,71,0.00,,---,0.00,VWS V14.00,2013-09-11 12:54:00,
2013-09-11 07:55:00,74.5,64.5,29.32,WSW,246,2.7,6.3,71,0.00,,---,0.00,VWS V14.00,2013-09-11 12:55:00,
2013-09-11 07:56:00,74.8,64.8,29.32,West,259,3.6,3.6,71,0.00,,---,0.00,VWS V14.00,2013-09-11 12:56:00,
2013-09-11 07:57:00,74.8,64.8,29.32,West,262,3.6,4.0,71,0.00,,---,0.00,VWS V14.00,2013-09-11 12:57:00,
2013-09-11 07:58:00,74.8,64.8,29.32,WSW,251,4.9,4.9,71,0.00,,---,0.00,VWS V14.00,2013-09-11 12:58:00,
2013-09-11 07:59:00,74.8,64.8,29.32,WSW,240,3.6,5.4,71,0.00,,---,0.00,VWS V14.00,2013-09-11 12:59:00,
2013-09-11 08:00:00,75.0,65.0,29.32,WSW,240,2.7,3.6,71,0.00,,---,0.00,VWS V14.00,2013-09-11 13:00:00,
2013-09-11 08:01:00,75.0,65.0,29.32,WSW,244,4.0,4.0,71,0.00,,---,0.00,VWS V14.00,2013-09-11 13:01:00,
2013-09-11 08:02:00,75.2,64.8,29.32,SW,233,2.7,4.0,70,0.00,,---,0.00,VWS V14.00,2013-09-11 13:02:00,
2013-09-11 08:03:00,75.2,64.8,29.32,SW,233,2.2,2.7,70,0.00,,---,0.00,VWS V14.00,2013-09-11 13:03:00,
2013-09-11 08:04:00,75.4,64.9,29.32,West,262,3.1,3.1,70,0.00,,---,0.00,VWS V14.00,2013-09-11 13:04:00,
2013-09-11 08:05:00,75.6,65.1,29.32,WSW,248,3.1,4.9,70,0.00,,---,0.00,VWS V14.00,2013-09-11 13:05:00,
2013-09-11 08:06:00,75.6,65.1,29.32,West,275,4.9,4.9,70,0.00,,---,0.00,VWS V14.00,2013-09-11 13:06:00,
2013-09-11 08:07:00,75.7,65.3,29.32,West,268,4.0,6.3,70,0.00,,---,0.00,VWS V14.00,2013-09-11 13:07:00,
2013-09-11 08:08:00,75.7,65.3,29.32,WSW,254,3.1,4.0,70,0.00,,---,0.00,VWS V14.00,2013-09-11 13:08:00,
2013-09-11 08:09:00,75.9,65.4,29.32,West,276,4.9,6.3,70,0.00,,---,0.00,VWS V14.00,2013-09-11 13:09:00,
2013-09-11 08:10:00,75.9,65.4,29.32,SSW,209,2.7,4.9,70,0.00,,---,0.00,VWS V14.00,2013-09-11 13:10:00,
2013-09-11 08:11:00,75.9,65.4,29.32,West,259,2.7,2.7,70,0.00,,---,0.00,VWS V14.00,2013-09-11 13:11:00,
2013-09-11 08:12:00,75.9,65.4,29.32,WSW,252,10.1,10.1,70,0.00,,---,0.00,VWS V14.00,2013-09-11 13:12:00,
2013-09-11 08:13:00,75.9,65.4,29.32,WSW,258,3.6,10.1,70,0.00,,---,0.00,VWS V14.00,2013-09-11 13:13:00,
2013-09-11 08:14:00,75.9,65.4,29.32,NW,306,5.8,6.3,70,0.00,,---,0.00,VWS V14.00,2013-09-11 13:14:00,
2013-09-11 08:15:00,75.9,65.4,29.32,West,267,6.3,6.3,70,0.00,,---,0.00,VWS V14.00,2013-09-11 13:15:00,
2013-09-11 08:16:00,75.9,65.4,29.32,SW,223,3.1,3.6,70,0.00,,---,0.00,VWS V14.00,2013-09-11 13:16:00,
2013-09-11 08:17:00,75.9,65.4,29.32,West,262,4.0,4.0,70,0.00,,---,0.00,VWS V14.00,2013-09-11 13:17:00,
2013-09-11 08:18:00,75.9,65.4,29.32,West,261,5.8,5.8,70,0.00,,---,0.00,VWS V14.00,2013-09-11 13:18:00,
2013-09-11 08:19:00,75.9,65.4,29.32,WNW,283,5.8,7.6,70,0.00,,---,0.00,VWS V14.00,2013-09-11 13:19:00,
2013-09-11 08:20:00,75.7,65.3,29.32,West,260,4.0,5.8,70,0.00,,---,0.00,VWS V14.00,2013-09-11 13:20:00,
2013-09-11 08:21:00,75.7,65.3,29.32,SW,230,2.2,6.7,70,0.00,,---,0.00,VWS V14.00,2013-09-11 13:21:00,
2013-09-11 08:22:00,75.7,65.3,29.32,West,264,8.7,8.7,70,0.00,,---,0.00,VWS V14.00,2013-09-11 13:22:00,
2013-09-11 08:23:00,75.7,65.3,29.32,West,270,7.6,8.7,70,0.00,,---,0.00,VWS V14.00,2013-09-11 13:23:00,
2013-09-11 08:24:00,75.7,65.3,29.32,West,264,3.1,7.6,70,0.00,,---,0.00,VWS V14.00,2013-09-11 13:24:00,
2013-09-11 08:25:00,75.7,65.3,29.32,WSW,258,4.0,5.8,70,0.00,,---,0.00,VWS V14.00,2013-09-11 13:25:00,
2013-09-11 08:26:00,75.7,65.3,29.32,West,270,2.7,3.6,70,0.00,,---,0.00,VWS V14.00,2013-09-11 13:26:00,
2013-09-11 08:27:00,75.7,65.3,29.32,SW,230,3.6,3.6,70,0.00,,---,0.00,VWS V14.00,2013-09-11 13:27:00,
2013-09-11 08:28:00,75.7,65.3,29.32,WSW,245,2.7,4.0,70,0.00,,---,0.00,VWS V14.00,2013-09-11 13:28:00,
2013-09-11 08:29:00,75.7,65.3,29.32,WSW,238,3.1,3.1,70,0.00,,---,0.00,VWS V14.00,2013-09-11 13:29:00,
2013-09-11 08:30:00,75.9,65.4,29.32,SW,223,2.2,3.1,70,0.00,,---,0.00,VWS V14.00,2013-09-11 13:30:00,
2013-09-11 08:31:00,75.9,65.4,29.32,WSW,257,4.0,4.0,70,0.00,,---,0.00,VWS V14.00,2013-09-11 13:31:00,
2013-09-11 08:32:00,75.9,65.4,29.32,WSW,253,4.0,4.0,70,0.00,,---,0.00,VWS V14.00,2013-09-11 13:32:00,
2013-09-11 08:33:00,75.9,65.4,29.32,SSW,200,2.7,4.0,70,0.00,,---,0.00,VWS V14.00,2013-09-11 13:33:00,
2013-09-11 08:34:00,75.9,65.4,29.32,WSW,243,2.7,3.6,70,0.00,,---,0.00,VWS V14.00,2013-09-11 13:34:00,
2013-09-11 08:35:00,75.9,65.4,29.32,WSW,243,0.0,2.7,70,0.00,,---,0.00,VWS V14.00,2013-09-11 13:35:00,
2013-09-11 08:36:00,75.9,65.4,29.32,WSW,243,0.0,0.0,70,0.00,,---,0.00,VWS V14.00,2013-09-11 13:36:00,
2013-09-11 08:37:00,75.9,65.4,29.32,WSW,243,0.0,0.0,70,0.00,,---,0.00,VWS V14.00,2013-09-11 13:37:00,
2013-09-11 08:38:00,75.9,65.4,29.32,West,276,3.1,3.1,70,0.00,,---,0.00,VWS V14.00,2013-09-11 13:38:00,
2013-09-11 08:54:00,76.6,66.1,29.32,SSW,207,0.0,0.0,70,0.00,,---,0.00,VWS V14.00,2013-09-11 13:54:00,
2013-09-11 08:55:00,76.6,66.1,29.32,WSW,243,0.0,0.0,70,0.00,,---,0.00,VWS V14.00,2013-09-11 13:55:00,
2013-09-11 08:56:00,76.6,66.1,29.32,WSW,239,0.0,3.6,70,0.00,,---,0.00,VWS V14.00,2013-09-11 13:56:00,
2013-09-11 08:57:00,76.8,66.3,29.32,SSW,213,3.1,3.6,70,0.00,,---,0.00,VWS V14.00,2013-09-11 13:57:00,
2013-09-11 08:58:00,76.8,66.3,29.32,SSW,213,2.2,3.1,70,0.00,,---,0.00,VWS V14.00,2013-09-11 13:58:00,
2013-09-11 08:59:00,77.0,66.1,29.32,SSW,197,0.0,0.0,69,0.00,,---,0.00,VWS V14.00,2013-09-11 13:59:00,
2013-09-11 09:00:00,77.0,66.1,29.32,SSW,210,4.9,4.9,69,0.00,,---,0.00,VWS V14.00,2013-09-11 14:00:00,
2013-09-11 09:01:00,77.2,66.2,29.32,SSW,209,4.0,4.9,69,0.00,,---,0.00,VWS V14.00,2013-09-11 14:01:00,
2013-09-11 09:02:00,77.2,66.2,29.32,West,262,3.6,5.4,69,0.00,,---,0.00,VWS V14.00,2013-09-11 14:02:00,
2013-09-11 09:03:00,77.2,66.2,29.32,West,261,4.9,5.8,69,0.00,,---,0.00,VWS V14.00,2013-09-11 14:03:00,
2013-09-11 09:04:00,77.4,66.4,29.32,West,266,0.0,3.1,69,0.00,,---,0.00,VWS V14.00,2013-09-11 14:04:00,
2013-09-11 09:05:00,77.5,66.6,29.32,West,266,0.0,3.1,69,0.00,,---,0.00,VWS V14.00,2013-09-11 14:05:00,
2013-09-11 09:06:00,77.7,66.8,29.32,SW,224,2.7,2.7,69,0.00,,---,0.00,VWS V14.00,2013-09-11 14:06:00,
2013-09-11 09:07:00,77.9,66.9,29.32,SW,226,2.7,2.7,69,0.00,,---,0.00,VWS V14.00,2013-09-11 14:07:00,
2013-09-11 09:08:00,78.1,67.1,29.32,WNW,287,3.6,6.3,69,0.00,,---,0.00,VWS V14.00,2013-09-11 14:08:00,
2013-09-11 09:09:00,78.1,67.1,29.32,West,261,2.7,4.0,69,0.00,,---,0.00,VWS V14.00,2013-09-11 14:09:00,
2013-09-11 09:10:00,78.1,67.1,29.32,SSW,205,3.1,4.0,69,0.00,,---,0.00,VWS V14.00,2013-09-11 14:10:00,
2013-09-11 09:11:00,78.3,67.3,29.32,SSW,205,2.2,3.1,69,0.00,,---,0.00,VWS V14.00,2013-09-11 14:11:00,
2013-09-11 09:12:00,78.4,67.4,29.32,SW,231,3.1,3.1,69,0.00,,---,0.00,VWS V14.00,2013-09-11 14:12:00,
2013-09-11 09:13:00,78.4,67.4,29.32,West,276,2.7,5.4,69,0.00,,---,0.00,VWS V14.00,2013-09-11 14:13:00,
2013-09-11 09:14:00,78.6,67.6,29.32,WSW,247,3.6,3.6,69,0.00,,---,0.00,VWS V14.00,2013-09-11 14:14:00,
2013-09-11 09:15:00,78.6,67.6,29.32,WSW,247,2.7,3.6,69,0.00,,---,0.00,VWS V14.00,2013-09-11 14:15:00,
2013-09-11 09:16:00,78.8,67.8,29.32,WSW,247,0.0,2.7,69,0.00,,---,0.00,VWS V14.00,2013-09-11 14:16:00,
2013-09-11 09:17:00,78.8,67.8,29.32,WSW,246,0.0,0.0,69,0.00,,---,0.00,VWS V14.00,2013-09-11 14:17:00,
2013-09-11 09:18:00,79.2,68.1,29.32,SW,214,0.0,0.0,69,0.00,,---,0.00,VWS V14.00,2013-09-11 14:18:00,
2013-09-11 09:20:00,79.3,68.3,29.32,West,270,0.0,0.0,69,0.00,,---,0.00,VWS V14.00,2013-09-11 14:20:00,
2013-09-11 09:21:00,79.3,68.3,29.32,SSW,196,0.0,0.0,69,0.00,,---,0.00,VWS V14.00,2013-09-11 14:21:00,
2013-09-11 09:22:00,79.5,68.5,29.32,SSW,196,0.0,0.0,69,0.00,,---,0.00,VWS V14.00,2013-09-11 14:22:00,
2013-09-11 09:23:00,79.5,68.5,29.32,SSW,196,0.0,0.0,69,0.00,,---,0.00,VWS V14.00,2013-09-11 14:23:00,
2013-09-11 09:24:00,79.7,68.6,29.32,South,184,0.0,0.0,69,0.00,,---,0.00,VWS V14.00,2013-09-11 14:24:00,
2013-09-11 09:25:00,79.7,68.6,29.32,SW,230,2.2,4.0,69,0.00,,---,0.00,VWS V14.00,2013-09-11 14:25:00,
2013-09-11 09:39:00,79.3,68.3,29.32,South,186,0.0,0.0,69,0.00,,---,0.00,VWS V14.00,2013-09-11 14:39:00,
2013-09-11 09:40:00,79.3,68.3,29.32,SSW,203,0.0,0.0,69,0.00,,---,0.00,VWS V14.00,2013-09-11 14:40:00,
2013-09-11 09:41:00,79.5,68.5,29.32,SSW,206,0.0,0.0,69,0.00,,---,0.00,VWS V14.00,2013-09-11 14:41:00,
2013-09-11 09:42:00,79.5,68.5,29.32,SSW,206,0.0,0.0,69,0.00,,---,0.00,VWS V14.00,2013-09-11 14:42:00,
2013-09-11 09:43:00,79.7,68.6,29.32,SW,229,2.2,2.7,69,0.00,,---,0.00,VWS V14.00,2013-09-11 14:43:00,
2013-09-11 09:44:00,80.1,69.0,29.32,West,281,2.7,2.7,69,0.00,,---,0.00,VWS V14.00,2013-09-11 14:44:00,
2013-09-11 09:45:00,80.1,69.0,29.32,West,281,2.7,2.7,69,0.00,,---,0.00,VWS V14.00,2013-09-11 14:45:00,
2013-09-11 09:46:00,80.1,69.0,29.32,WSW,240,4.0,4.0,69,0.00,,---,0.00,VWS V14.00,2013-09-11 14:46:00,
2013-09-11 09:47:00,80.1,69.0,29.32,WSW,240,0.0,4.0,69,0.00,,---,0.00,VWS V14.00,2013-09-11 14:47:00,
2013-09-11 09:48:00,80.2,69.2,29.32,WSW,245,0.0,0.0,69,0.00,,---,0.00,VWS V14.00,2013-09-11 14:48:00,
2013-09-11 09:49:00,80.2,69.2,29.32,WSW,245,0.0,0.0,69,0.00,,---,0.00,VWS V14.00,2013-09-11 14:49:00,
2013-09-11 09:50:00,80.4,69.3,29.32,WSW,245,0.0,0.0,69,0.00,,---,0.00,VWS V14.00,2013-09-11 14:50:00,
2013-09-11 09:51:00,80.4,69.3,29.32,SSW,198,0.0,0.0,69,0.00,,---,0.00,VWS V14.00,2013-09-11 14:51:00,
2013-09-11 09:52:00,80.4,68.0,29.32,SW,228,2.7,2.7,66,0.00,,---,0.00,VWS V14.00,2013-09-11 14:52:00,
2013-09-11 09:53:00,80.4,68.0,29.32,SSW,211,2.7,3.6,66,0.00,,---,0.00,VWS V14.00,2013-09-11 14:53:00,
2013-09-11 09:54:00,80.4,68.0,29.32,SW,225,0.0,0.0,66,0.00,,---,0.00,VWS V14.00,2013-09-11 14:54:00,
2013-09-11 09:55:00,80.4,68.0,29.32,SW,225,0.0,0.0,66,0.00,,---,0.00,VWS V14.00,2013-09-11 14:55:00,
2013-09-11 09:56:00,80.2,67.9,29.32,West,268,0.0,0.0,66,0.00,,---,0.00,VWS V14.00,2013-09-11 14:56:00,
2013-09-11 09:57:00,80.2,67.9,29.32,West,259,0.0,0.0,66,0.00,,---,0.00,VWS V14.00,2013-09-11 14:57:00,
2013-09-11 09:58:00,80.2,67.9,29.32,West,259,0.0,0.0,66,0.00,,---,0.00,VWS V14.00,2013-09-11 14:58:00,
2013-09-11 09:59:00,80.2,67.9,29.32,WSW,254,0.0,0.0,66,0.00,,---,0.00,VWS V14.00,2013-09-11 14:59:00,
2013-09-11 10:00:00,80.2,69.2,29.32,WSW,256,0.0,0.0,69,0.00,,---,0.00,VWS V14.00,2013-09-11 15:00:00,
2013-09-11 10:01:00,80.2,67.9,29.32,WSW,256,0.0,0.0,66,0.00,,---,0.00,VWS V14.00,2013-09-11 15:01:00,
2013-09-11 10:02:00,80.2,67.9,29.32,SW,214,0.0,0.0,66,0.00,,---,0.00,VWS V14.00,2013-09-11 15:02:00,
2013-09-11 10:03:00,80.1,67.7,29.32,SW,221,0.0,0.0,66,0.00,,---,0.00,VWS V14.00,2013-09-11 15:03:00,
2013-09-11 10:04:00,80.1,69.0,29.32,South,189,0.0,0.0,69,0.00,,---,0.00,VWS V14.00,2013-09-11 15:04:00,
2013-09-11 10:05:00,80.1,69.0,29.32,West,272,0.0,0.0,69,0.00,,---,0.00,VWS V14.00,2013-09-11 15:05:00,
2013-09-11 10:06:00,80.1,69.0,29.32,West,272,0.0,0.0,69,0.00,,---,0.00,VWS V14.00,2013-09-11 15:06:00,
2013-09-11 10:07:00,80.1,69.0,29.32,SW,218,0.0,0.0,69,0.00,,---,0.00,VWS V14.00,2013-09-11 15:07:00,
2013-09-11 10:08:00,80.1,67.7,29.32,West,266,0.0,0.0,66,0.00,,---,0.00,VWS V14.00,2013-09-11 15:08:00,
2013-09-11 10:09:00,80.1,69.0,29.32,West,266,0.0,0.0,69,0.00,,---,0.00,VWS V14.00,2013-09-11 15:09:00,
2013-09-11 10:10:00,80.1,69.0,29.32,West,266,0.0,0.0,69,0.00,,---,0.00,VWS V14.00,2013-09-11 15:10:00,
2013-09-11 10:11:00,80.2,69.2,29.32,West,266,0.0,0.0,69,0.00,,---,0.00,VWS V14.00,2013-09-11 15:11:00,
2013-09-11 10:12:00,80.2,69.2,29.32,West,265,0.0,0.0,69,0.00,,---,0.00,VWS V14.00,2013-09-11 15:12:00,
2013-09-11 10:13:00,80.4,69.3,29.32,West,265,0.0,0.0,69,0.00,,---,0.00,VWS V14.00,2013-09-11 15:13:00,
2013-09-11 10:14:00,80.4,69.3,29.32,West,265,0.0,0.0,69,0.00,,---,0.00,VWS V14.00,2013-09-11 15:14:00,
2013-09-11 10:15:00,80.6,68.2,29.32,West,265,0.0,0.0,66,0.00,,---,0.00,VWS V14.00,2013-09-11 15:15:00,
2013-09-11 10:16:00,80.6,68.2,29.32,West,265,0.0,0.0,66,0.00,,---,0.00,VWS V14.00,2013-09-11 15:16:00,
2013-09-11 10:17:00,80.6,68.2,29.32,West,265,0.0,0.0,66,0.00,,---,0.00,VWS V14.00,2013-09-11 15:17:00,
2013-09-11 10:18:00,80.6,68.2,29.32,West,259,0.0,0.0,66,0.00,,---,0.00,VWS V14.00,2013-09-11 15:18:00,
2013-09-11 10:19:00,80.4,68.0,29.32,West,259,0.0,0.0,66,0.00,,---,0.00,VWS V14.00,2013-09-11 15:19:00,
2013-09-11 10:20:00,80.4,68.0,29.32,SW,226,0.0,0.0,66,0.00,,---,0.00,VWS V14.00,2013-09-11 15:20:00,
2013-09-11 10:21:00,80.4,69.3,29.32,SW,219,0.0,0.0,69,0.00,,---,0.00,VWS V14.00,2013-09-11 15:21:00,
2013-09-11 10:22:00,80.4,69.3,29.32,SSW,210,0.0,0.0,69,0.00,,---,0.00,VWS V14.00,2013-09-11 15:22:00,
2013-09-11 10:23:00,80.4,69.3,29.32,WSW,252,0.0,0.0,69,0.00,,---,0.00,VWS V14.00,2013-09-11 15:23:00,
2013-09-11 10:24:00,80.2,67.9,29.32,WSW,252,0.0,0.0,66,0.00,,---,0.00,VWS V14.00,2013-09-11 15:24:00,
2013-09-11 10:25:00,80.4,69.3,29.32,WSW,252,0.0,0.0,69,0.00,,---,0.00,VWS V14.00,2013-09-11 15:25:00,
2013-09-11 10:26:00,80.4,69.3,29.32,SSW,205,0.0,0.0,69,0.00,,---,0.00,VWS V14.00,2013-09-11 15:26:00,
2013-09-11 10:27:00,80.4,69.3,29.32,SSW,205,0.0,0.0,69,0.00,,---,0.00,VWS V14.00,2013-09-11 15:27:00,
2013-09-11 10:28:00,80.4,69.3,29.32,WSW,238,2.2,2.2,69,0.00,,---,0.00,VWS V14.00,2013-09-11 15:28:00,
2013-09-11 10:29:00,80.6,68.2,29.32,SSW,210,0.0,0.0,66,0.00,,---,0.00,VWS V14.00,2013-09-11 15:29:00,
2013-09-11 10:30:00,80.6,68.2,29.32,West,270,4.0,4.0,66,0.00,,---,0.00,VWS V14.00,2013-09-11 15:30:00,
2013-09-11 10:31:00,80.6,68.2,29.32,WSW,258,2.2,4.9,66,0.00,,---,0.00,VWS V14.00,2013-09-11 15:31:00,
2013-09-11 10:32:00,80.6,68.2,29.32,WSW,258,0.0,2.2,66,0.00,,---,0.00,VWS V14.00,2013-09-11 15:32:00,
2013-09-11 10:33:00,80.6,68.2,29.32,WSW,257,0.0,0.0,66,0.00,,---,0.00,VWS V14.00,2013-09-11 15:33:00,
2013-09-11 10:34:00,80.8,68.4,29.32,West,271,2.7,3.6,66,0.00,,---,0.00,VWS V14.00,2013-09-11 15:34:00,
2013-09-11 10:35:00,80.6,68.2,29.32,West,270,0.0,4.0,66,0.00,,---,0.00,VWS V14.00,2013-09-11 15:35:00,
2013-09-11 10:36:00,80.8,68.4,29.32,West,269,3.1,3.1,66,0.00,,---,0.00,VWS V14.00,2013-09-11 15:36:00,
2013-09-11 10:37:00,80.8,68.4,29.32,South,190,2.7,3.1,66,0.00,,---,0.00,VWS V14.00,2013-09-11 15:37:00,
2013-09-11 10:38:00,81.0,68.5,29.32,South,189,3.1,3.6,66,0.00,,---,0.00,VWS V14.00,2013-09-11 15:38:00,
2013-09-11 10:39:00,81.3,68.9,29.32,SSW,198,0.0,2.2,66,0.00,,---,0.00,VWS V14.00,2013-09-11 15:39:00,
2013-09-11 10:40:00,81.3,68.9,29.32,West,270,3.1,3.1,66,0.00,,---,0.00,VWS V14.00,2013-09-11 15:40:00,
2013-09-11 10:41:00,81.3,68.9,29.32,West,270,0.0,3.1,66,0.00,,---,0.00,VWS V14.00,2013-09-11 15:41:00,
2013-09-11 10:42:00,81.3,68.9,29.32,West,264,0.0,0.0,66,0.00,,---,0.00,VWS V14.00,2013-09-11 15:42:00,
2013-09-11 10:43:00,81.5,69.1,29.32,West,271,0.0,0.0,66,0.00,,---,0.00,VWS V14.00,2013-09-11 15:43:00,
2013-09-11 10:44:00,81.7,69.2,29.32,WSW,241,3.6,3.6,66,0.00,,---,0.00,VWS V14.00,2013-09-11 15:44:00,
2013-09-11 10:45:00,81.7,69.2,29.32,SSW,200,3.1,3.6,66,0.00,,---,0.00,VWS V14.00,2013-09-11 15:45:00,
2013-09-11 10:46:00,82.0,69.6,29.32,WSW,250,0.0,3.1,66,0.00,,---,0.00,VWS V14.00,2013-09-11 15:46:00,
2013-09-11 10:47:00,82.6,69.6,29.32,WSW,250,0.0,0.0,65,0.00,,---,0.00,VWS V14.00,2013-09-11 15:47:00,
2013-09-11 10:48:00,83.1,70.1,29.32,SSE,160,3.6,5.8,65,0.00,,---,0.00,VWS V14.00,2013-09-11 15:48:00,
2013-09-11 10:49:00,83.8,70.8,29.32,West,272,2.7,5.4,65,0.00,,---,0.00,VWS V14.00,2013-09-11 15:49:00,
2013-09-11 10:50:00,84.0,71.0,29.32,South,189,4.9,5.4,65,0.00,,---,0.00,VWS V14.00,2013-09-11 15:50:00,
2013-09-11 10:51:00,84.6,71.5,29.32,SW,224,4.0,5.8,65,0.00,,---,0.00,VWS V14.00,2013-09-11 15:51:00,
2013-09-11 10:52:00,84.7,71.7,29.32,West,276,2.2,4.0,65,0.00,,---,0.00,VWS V14.00,2013-09-11 15:52:00,
2013-09-11 10:53:00,85.3,72.2,29.32,WSW,242,2.2,3.1,65,0.00,,---,0.00,VWS V14.00,2013-09-11 15:53:00,
2013-09-11 10:54:00,85.5,72.4,29.32,WSW,255,4.0,4.0,65,0.00,,---,0.00,VWS V14.00,2013-09-11 15:54:00,
2013-09-11 10:55:00,85.5,72.4,29.32,NNW,343,3.1,4.0,65,0.00,,---,0.00,VWS V14.00,2013-09-11 15:55:00,
2013-09-11 10:56:00,85.8,72.7,29.32,NNE,33,0.0,3.1,65,0.00,,---,0.00,VWS V14.00,2013-09-11 15:56:00,
2013-09-11 10:57:00,85.8,72.7,29.32,South,176,0.0,0.0,65,0.00,,---,0.00,VWS V14.00,2013-09-11 15:57:00,
2013-09-11 10:58:00,86.2,73.0,29.32,WSW,258,3.6,3.6,65,0.00,,---,0.00,VWS V14.00,2013-09-11 15:58:00,
2013-09-11 10:59:00,86.0,72.9,29.32,SW,231,5.8,5.8,65,0.00,,---,0.00,VWS V14.00,2013-09-11 15:59:00,
2013-09-11 11:00:00,85.6,72.5,29.32,SW,236,4.0,6.3,65,0.00,,---,0.00,VWS V14.00,2013-09-11 16:00:00,
2013-09-11 11:01:00,85.1,72.0,29.32,West,270,5.4,5.4,65,0.00,,---,0.00,VWS V14.00,2013-09-11 16:01:00,
2013-09-11 11:02:00,84.9,71.8,29.32,WSW,256,2.2,5.4,65,0.00,,---,0.00,VWS V14.00,2013-09-11 16:02:00,
2013-09-11 11:03:00,84.7,71.7,29.32,SW,230,0.0,2.2,65,0.00,,---,0.00,VWS V14.00,2013-09-11 16:03:00,
2013-09-11 11:04:00,84.6,71.5,29.32,SSW,210,4.9,4.9,65,0.00,,---,0.00,VWS V14.00,2013-09-11 16:04:00,
2013-09-11 11:05:00,84.4,71.3,29.32,SW,216,4.0,4.9,65,0.00,,---,0.00,VWS V14.00,2013-09-11 16:05:00,
2013-09-11 11:06:00,84.2,71.2,29.32,SW,217,2.7,6.3,65,0.00,,---,0.00,VWS V14.00,2013-09-11 16:06:00,
2013-09-11 11:07:00,84.2,71.2,29.32,SW,214,2.7,4.9,65,0.00,,---,0.00,VWS V14.00,2013-09-11 16:07:00,
2013-09-11 11:50:00,86.5,73.4,29.29,South,188,3.1,3.1,65,0.00,,---,0.00,VWS V14.00,2013-09-11 16:50:00,
2013-09-11 11:51:00,86.5,73.4,29.29,SSW,207,2.7,2.7,65,0.00,,---,0.00,VWS V14.00,2013-09-11 16:51:00,
2013-09-11 11:52:00,86.5,73.4,29.29,SSW,211,3.6,5.4,65,0.00,,---,0.00,VWS V14.00,2013-09-11 16:52:00,
2013-09-11 11:53:00,86.7,73.6,29.29,SW,222,4.0,7.6,65,0.00,,---,0.00,VWS V14.00,2013-09-11 16:53:00,
2013-09-11 11:54:00,86.7,73.6,29.29,SSW,200,5.4,8.1,65,0.00,,---,0.00,VWS V14.00,2013-09-11 16:54:00,
2013-09-11 11:55:00,86.9,73.7,29.29,SSW,198,3.1,4.0,65,0.00,,---,0.00,VWS V14.00,2013-09-11 16:55:00,
2013-09-11 11:56:00,86.9,73.7,29.29,SSW,211,8.1,8.1,65,0.00,,---,0.00,VWS V14.00,2013-09-11 16:56:00,
2013-09-11 11:57:00,87.1,73.9,29.29,SSW,209,4.5,8.1,65,0.00,,---,0.00,VWS V14.00,2013-09-11 16:57:00,
2013-09-11 11:58:00,87.1,73.9,29.29,SSW,206,5.8,5.8,65,0.00,,---,0.00,VWS V14.00,2013-09-11 16:58:00,
2013-09-11 11:59:00,87.1,73.9,29.29,South,172,7.6,7.6,65,0.00,,---,0.00,VWS V14.00,2013-09-11 16:59:00,
2013-09-11 12:00:00,87.1,73.9,29.29,WSW,241,2.7,4.0,65,0.00,,---,0.00,VWS V14.00,2013-09-11 17:00:00,
2013-09-11 12:01:00,87.1,73.9,29.29,SSW,198,6.3,6.3,65,0.00,,---,0.00,VWS V14.00,2013-09-11 17:01:00,
2013-09-11 12:02:00,87.3,74.1,29.29,WSW,245,2.7,6.3,65,0.00,,---,0.00,VWS V14.00,2013-09-11 17:02:00,
2013-09-11 12:03:00,87.3,74.1,29.29,SSW,199,3.1,3.6,65,0.00,,---,0.00,VWS V14.00,2013-09-11 17:03:00,
2013-09-11 12:04:00,87.4,74.2,29.29,South,184,3.1,5.4,65,0.00,,---,0.00,VWS V14.00,2013-09-11 17:04:00,
2013-09-11 12:05:00,87.8,74.1,29.29,SSW,208,3.6,4.0,64,0.00,,---,0.00,VWS V14.00,2013-09-11 17:05:00,
2013-09-11 12:06:00,87.8,74.1,29.29,SSW,198,6.7,6.7,64,0.00,,---,0.00,VWS V14.00,2013-09-11 17:06:00,
2013-09-11 12:07:00,88.0,74.3,29.29,SSW,212,2.7,7.6,64,0.00,,---,0.00,VWS V14.00,2013-09-11 17:07:00,
2013-09-11 12:08:00,88.0,74.3,29.29,South,182,5.4,5.4,64,0.00,,---,0.00,VWS V14.00,2013-09-11 17:08:00,
2013-09-11 12:09:00,88.2,74.4,29.29,SSE,163,4.0,5.4,64,0.00,,---,0.00,VWS V14.00,2013-09-11 17:09:00,
2013-09-11 12:10:00,88.2,74.4,29.29,West,268,0.0,4.0,64,0.00,,---,0.00,VWS V14.00,2013-09-11 17:10:00,
2013-09-11 12:11:00,88.2,74.4,29.29,West,268,0.0,4.0,64,0.00,,---,0.00,VWS V14.00,2013-09-11 17:11:00,
2013-09-11 12:12:00,88.3,74.6,29.29,NW,309,0.0,0.0,64,0.00,,---,0.00,VWS V14.00,2013-09-11 17:12:00,
2013-09-11 12:13:00,88.5,74.8,29.29,NW,311,0.0,0.0,64,0.00,,---,0.00,VWS V14.00,2013-09-11 17:13:00,
2013-09-11 12:14:00,88.7,75.0,29.29,SSW,206,3.6,3.6,64,0.00,,---,0.00,VWS V14.00,2013-09-11 17:14:00,
2013-09-11 12:15:00,89.1,75.3,29.29,SW,229,4.9,6.3,64,0.00,,---,0.00,VWS V14.00,2013-09-11 17:15:00,
2013-09-11 12:16:00,89.1,75.3,29.29,SSW,197,2.7,6.3,64,0.00,,---,0.00,VWS V14.00,2013-09-11 17:16:00,
2013-09-11 12:17:00,89.2,75.5,29.29,SSW,198,4.0,5.4,64,0.00,,---,0.00,VWS V14.00,2013-09-11 17:17:00,
2013-09-11 12:18:00,89.2,75.5,29.29,ESE,119,3.1,4.9,64,0.00,,---,0.00,VWS V14.00,2013-09-11 17:18:00,
2013-09-11 12:19:00,89.2,75.5,29.29,WSW,251,3.6,4.0,64,0.00,,---,0.00,VWS V14.00,2013-09-11 17:19:00,
2013-09-11 12:20:00,89.2,75.5,29.29,WSW,244,2.7,4.5,64,0.00,,---,0.00,VWS V14.00,2013-09-11 17:20:00,
2013-09-11 12:21:00,89.2,75.5,29.29,WSW,251,2.7,4.5,64,0.00,,---,0.00,VWS V14.00,2013-09-11 17:21:00,
2013-09-11 12:22:00,89.2,75.5,29.29,SW,214,3.6,5.4,64,0.00,,---,0.00,VWS V14.00,2013-09-11 17:22:00,
2013-09-11 12:23:00,89.2,75.5,29.29,SSE,152,3.1,4.0,64,0.00,,---,0.00,VWS V14.00,2013-09-11 17:23:00,
2013-09-11 12:24:00,89.2,75.5,29.29,SSW,203,2.2,4.0,64,0.00,,---,0.00,VWS V14.00,2013-09-11 17:24:00,
2013-09-11 12:25:00,89.4,75.6,29.29,ESE,110,3.6,3.6,64,0.00,,---,0.00,VWS V14.00,2013-09-11 17:25:00,
2013-09-11 12:26:00,89.4,75.6,29.29,ESE,108,0.0,3.6,64,0.00,,---,0.00,VWS V14.00,2013-09-11 17:26:00,
2013-09-11 12:27:00,89.4,75.6,29.29,SW,223,3.1,6.3,64,0.00,,---,0.00,VWS V14.00,2013-09-11 17:27:00,
2013-09-11 12:28:00,89.4,75.6,29.29,SW,214,4.0,5.8,64,0.00,,---,0.00,VWS V14.00,2013-09-11 17:28:00,
2013-09-11 12:29:00,89.6,75.8,29.29,WSW,258,3.6,4.9,64,0.00,,---,0.00,VWS V14.00,2013-09-11 17:29:00,
2013-09-11 12:30:00,89.6,75.8,29.29,SSW,213,7.6,7.6,64,0.00,,---,0.00,VWS V14.00,2013-09-11 17:30:00,
2013-09-11 12:31:00,89.6,75.8,29.29,SSE,160,3.6,7.6,64,0.00,,---,0.00,VWS V14.00,2013-09-11 17:31:00,
2013-09-11 12:32:00,89.6,75.8,29.29,SSW,205,4.9,8.1,64,0.00,,---,0.00,VWS V14.00,2013-09-11 17:32:00,
2013-09-11 12:33:00,89.6,75.8,29.29,SW,229,5.8,8.1,64,0.00,,---,0.00,VWS V14.00,2013-09-11 17:33:00,
2013-09-11 12:34:00,89.4,75.6,29.29,SW,231,2.7,5.8,64,0.00,,---,0.00,VWS V14.00,2013-09-11 17:34:00,
2013-09-11 12:35:00,89.2,75.5,29.29,WSW,247,3.1,4.9,64,0.00,,---,0.00,VWS V14.00,2013-09-11 17:35:00,
2013-09-11 12:36:00,89.1,75.3,29.29,WSW,238,2.7,4.9,64,0.00,,---,0.00,VWS V14.00,2013-09-11 17:36:00,
2013-09-11 12:37:00,88.9,75.1,29.29,SSW,209,4.9,4.9,64,0.00,,---,0.00,VWS V14.00,2013-09-11 17:37:00,
2013-09-11 12:38:00,88.9,75.1,29.29,SSW,193,3.1,5.8,64,0.00,,---,0.00,VWS V14.00,2013-09-11 17:38:00,
2013-09-11 12:39:00,88.9,75.1,29.29,SSW,198,3.1,4.0,64,0.00,,---,0.00,VWS V14.00,2013-09-11 17:39:00,
2013-09-11 12:40:00,89.2,75.5,29.29,SSW,207,3.1,4.0,64,0.00,,---,0.00,VWS V14.00,2013-09-11 17:40:00,
2013-09-11 12:41:00,89.2,75.5,29.29,South,191,2.7,4.9,64,0.00,,---,0.00,VWS V14.00,2013-09-11 17:41:00,
2013-09-11 12:42:00,89.6,75.8,29.29,WSW,252,3.6,4.9,64,0.00,,---,0.00,VWS V14.00,2013-09-11 17:42:00,
2013-09-11 12:43:00,89.8,76.0,29.29,SW,232,3.1,6.3,64,0.00,,---,0.00,VWS V14.00,2013-09-11 17:43:00,
2013-09-11 12:44:00,90.0,76.2,29.29,SW,217,3.1,5.4,64,0.00,,---,0.00,VWS V14.00,2013-09-11 17:44:00,
2013-09-11 12:45:00,90.5,76.7,29.29,SSW,206,4.5,4.5,64,0.00,,---,0.00,VWS V14.00,2013-09-11 17:45:00,
2013-09-11 12:46:00,90.5,76.7,29.29,SW,230,3.1,4.5,64,0.00,,---,0.00,VWS V14.00,2013-09-11 17:46:00,
2013-09-11 12:47:00,90.7,76.8,29.29,West,262,5.8,7.6,64,0.00,,---,0.00,VWS V14.00,2013-09-11 17:47:00,
2013-09-11 12:48:00,90.5,76.7,29.29,WSW,245,2.2,5.8,64,0.00,,---,0.00,VWS V14.00,2013-09-11 17:48:00,
2013-09-11 12:49:00,90.5,76.7,29.29,SSW,213,2.7,6.3,64,0.00,,---,0.00,VWS V14.00,2013-09-11 17:49:00,
2013-09-11 12:50:00,90.7,76.8,29.29,West,267,3.6,3.6,64,0.00,,---,0.00,VWS V14.00,2013-09-11 17:50:00,
2013-09-11 12:51:00,90.7,76.8,29.29,SW,225,7.2,7.2,64,0.00,,---,0.00,VWS V14.00,2013-09-11 17:51:00,
2013-09-11 12:52:00,90.5,76.7,29.29,SW,229,6.3,7.2,64,0.00,,---,0.00,VWS V14.00,2013-09-11 17:52:00,
2013-09-11 12:53:00,90.5,76.7,29.29,SSW,213,3.6,6.3,64,0.00,,---,0.00,VWS V14.00,2013-09-11 17:53:00,
2013-09-11 12:54:00,90.5,76.7,29.29,WSW,245,4.0,4.0,64,0.00,,---,0.00,VWS V14.00,2013-09-11 17:54:00,
2013-09-11 12:55:00,90.9,77.0,29.29,SSE,155,3.6,4.0,64,0.00,,---,0.00,VWS V14.00,2013-09-11 17:55:00,
2013-09-11 12:56:00,91.0,77.2,29.29,SSW,193,4.5,4.5,64,0.00,,---,0.00,VWS V14.00,2013-09-11 17:56:00,
2013-09-11 12:57:00,90.9,77.0,29.29,West,265,8.1,8.1,64,0.00,,---,0.00,VWS V14.00,2013-09-11 17:57:00,
2013-09-11 12:58:00,90.3,76.5,29.29,WNW,282,3.1,10.5,64,0.00,,---,0.00,VWS V14.00,2013-09-11 17:58:00,
2013-09-11 12:59:00,90.1,76.3,29.29,SSW,208,3.1,3.6,64,0.00,,---,0.00,VWS V14.00,2013-09-11 17:59:00,
2013-09-11 13:00:00,90.3,76.5,29.29,SSW,200,3.1,3.1,64,0.00,,---,0.00,VWS V14.00,2013-09-11 18:00:00,
2013-09-11 13:01:00,90.3,76.5,29.29,SSW,208,3.1,3.1,64,0.00,,---,0.00,VWS V14.00,2013-09-11 18:01:00,
2013-09-11 13:02:00,90.9,77.0,29.29,SW,219,4.9,4.9,64,0.00,,---,0.00,VWS V14.00,2013-09-11 18:02:00,
2013-09-11 13:03:00,91.2,77.3,29.29,West,279,5.8,8.7,64,0.00,,---,0.00,VWS V14.00,2013-09-11 18:03:00,
2013-09-11 13:04:00,91.2,77.3,29.29,West,265,6.7,7.6,64,0.00,,---,0.00,VWS V14.00,2013-09-11 18:04:00,
2013-09-11 13:05:00,90.9,77.0,29.29,SW,230,3.1,5.8,64,0.00,,---,0.00,VWS V14.00,2013-09-11 18:05:00,
2013-09-11 13:06:00,90.7,76.8,29.29,West,272,5.8,5.8,64,0.00,,---,0.00,VWS V14.00,2013-09-11 18:06:00,
2013-09-11 13:07:00,90.5,76.7,29.29,West,277,5.4,5.8,64,0.00,,---,0.00,VWS V14.00,2013-09-11 18:07:00,
2013-09-11 13:08:00,90.1,76.3,29.29,SW,231,5.4,8.3,64,0.00,,---,0.00,VWS V14.00,2013-09-11 18:08:00,
2013-09-11 13:09:00,90.1,76.3,29.26,WSW,247,3.1,7.6,64,0.00,,---,0.00,VWS V14.00,2013-09-11 18:09:00,
2013-09-11 13:10:00,90.3,76.5,29.26,WNW,283,2.2,2.7,64,0.00,,---,0.00,VWS V14.00,2013-09-11 18:10:00,
2013-09-11 13:11:00,90.3,76.5,29.26,WSW,258,3.6,3.6,64,0.00,,---,0.00,VWS V14.00,2013-09-11 18:11:00,
2013-09-11 13:12:00,90.3,76.5,29.26,WNW,293,7.6,7.6,64,0.00,,---,0.00,VWS V14.00,2013-09-11 18:12:00,
2013-09-11 13:13:00,90.1,76.3,29.26,West,270,6.3,8.3,64,0.00,,---,0.00,VWS V14.00,2013-09-11 18:13:00,
2013-09-11 13:14:00,90.1,76.3,29.26,SSW,201,3.1,6.3,64,0.00,,---,0.00,VWS V14.00,2013-09-11 18:14:00,
2013-09-11 13:15:00,90.5,76.7,29.26,SW,218,0.0,3.1,64,0.00,,---,0.00,VWS V14.00,2013-09-11 18:15:00,
2013-09-11 13:16:00,90.7,76.8,29.26,West,260,2.7,3.1,64,0.00,,---,0.00,VWS V14.00,2013-09-11 18:16:00,
2013-09-11 13:17:00,91.4,77.0,29.26,SW,221,3.1,3.1,63,0.00,,---,0.00,VWS V14.00,2013-09-11 18:17:00,
2013-09-11 13:18:00,91.8,77.4,29.26,SW,220,3.1,3.6,63,0.00,,---,0.00,VWS V14.00,2013-09-11 18:18:00,
2013-09-11 13:19:00,92.3,77.9,29.26,SW,220,3.1,3.6,63,0.00,,---,0.00,VWS V14.00,2013-09-11 18:19:00,
2013-09-11 13:20:00,92.7,78.2,29.26,West,270,5.4,8.1,63,0.00,,---,0.00,VWS V14.00,2013-09-11 18:20:00,
2013-09-11 13:21:00,92.3,77.9,29.26,West,268,4.9,8.1,63,0.00,,---,0.00,VWS V14.00,2013-09-11 18:21:00,
2013-09-11 13:22:00,91.6,77.2,29.26,SSW,210,4.9,4.9,63,0.00,,---,0.00,VWS V14.00,2013-09-11 18:22:00,
2013-09-11 13:23:00,91.2,77.3,29.26,SW,235,2.7,5.4,64,0.00,,---,0.00,VWS V14.00,2013-09-11 18:23:00,
2013-09-11 13:24:00,90.9,77.0,29.26,SSW,198,5.4,5.4,64,0.00,,---,0.00,VWS V14.00,2013-09-11 18:24:00,
2013-09-11 13:25:00,90.9,77.0,29.26,South,188,3.1,3.6,64,0.00,,---,0.00,VWS V14.00,2013-09-11 18:25:00,
2013-09-11 13:26:00,90.7,76.8,29.26,South,188,2.2,3.6,64,0.00,,---,0.00,VWS V14.00,2013-09-11 18:26:00,
2013-09-11 13:27:00,90.7,76.8,29.26,SSW,199,0.0,2.2,64,0.00,,---,0.00,VWS V14.00,2013-09-11 18:27:00,
2013-09-11 13:28:00,90.7,76.8,29.26,West,261,3.6,4.0,64,0.00,,---,0.00,VWS V14.00,2013-09-11 18:28:00,
2013-09-11 13:29:00,90.5,76.7,29.26,West,276,6.3,7.6,64,0.00,,---,0.00,VWS V14.00,2013-09-11 18:29:00,
2013-09-11 13:30:00,90.3,76.5,29.26,WSW,238,3.1,4.9,64,0.00,,---,0.00,VWS V14.00,2013-09-11 18:30:00,
2013-09-11 13:31:00,90.3,76.5,29.26,WSW,237,3.1,4.9,64,0.00,,---,0.00,VWS V14.00,2013-09-11 18:31:00,
2013-09-11 13:32:00,90.9,77.0,29.26,West,270,2.2,3.6,64,0.00,,---,0.00,VWS V14.00,2013-09-11 18:32:00,
2013-09-11 13:33:00,91.0,77.2,29.26,SSW,211,0.0,2.2,64,0.00,,---,0.00,VWS V14.00,2013-09-11 18:33:00,
2013-09-11 13:34:00,91.6,77.2,29.26,SW,222,2.7,2.7,63,0.00,,---,0.00,VWS V14.00,2013-09-11 18:34:00,
2013-09-11 13:35:00,92.7,78.2,29.26,WSW,239,2.7,3.6,63,0.00,,---,0.00,VWS V14.00,2013-09-11 18:35:00,
2013-09-11 13:36:00,92.7,78.2,29.26,WSW,239,2.7,3.6,63,0.00,,---,0.00,VWS V14.00,2013-09-11 18:36:00,
2013-09-11 13:37:00,92.8,78.4,29.26,WSW,246,3.6,5.4,63,0.00,,---,0.00,VWS V14.00,2013-09-11 18:37:00,
2013-09-11 13:38:00,92.8,78.4,29.26,WSW,252,4.0,4.9,63,0.00,,---,0.00,VWS V14.00,2013-09-11 18:38:00,
2013-09-11 13:39:00,92.8,78.4,29.26,SSW,195,3.1,4.0,63,0.00,,---,0.00,VWS V14.00,2013-09-11 18:39:00,
2013-09-11 13:40:00,92.7,78.2,29.23,SW,217,2.7,3.1,63,0.00,,---,0.00,VWS V14.00,2013-09-11 18:40:00,
2013-09-11 13:41:00,92.5,78.1,29.24,WNW,298,4.0,4.9,63,0.00,,---,0.00,VWS V14.00,2013-09-11 18:41:00,
2013-09-11 13:42:00,92.3,77.9,29.24,SSW,196,0.0,4.0,63,0.00,,---,0.00,VWS V14.00,2013-09-11 18:42:00,
2013-09-11 13:43:00,91.8,77.4,29.24,WNW,292,3.6,3.6,63,0.00,,---,0.00,VWS V14.00,2013-09-11 18:43:00,
2013-09-11 13:44:00,91.4,77.0,29.24,WNW,283,2.2,4.9,63,0.00,,---,0.00,VWS V14.00,2013-09-11 18:44:00,
2013-09-11 13:45:00,91.2,77.3,29.23,South,184,0.0,0.0,64,0.00,,---,0.00,VWS V14.00,2013-09-11 18:45:00,
2013-09-11 13:46:00,91.2,77.3,29.24,South,191,8.1,8.1,64,0.00,,---,0.00,VWS V14.00,2013-09-11 18:46:00,
2013-09-11 13:47:00,91.2,77.3,29.24,WSW,247,3.1,8.1,64,0.00,,---,0.00,VWS V14.00,2013-09-11 18:47:00,
2013-09-11 13:48:00,90.7,76.8,29.24,WNW,283,6.3,6.3,64,0.00,,---,0.00,VWS V14.00,2013-09-11 18:48:00,
2013-09-11 13:49:00,90.5,76.7,29.24,West,260,3.1,6.3,64,0.00,,---,0.00,VWS V14.00,2013-09-11 18:49:00,
2013-09-11 13:50:00,90.0,76.2,29.23,West,266,2.7,5.4,64,0.00,,---,0.00,VWS V14.00,2013-09-11 18:50:00,
2013-09-11 13:51:00,90.0,76.2,29.24,West,271,2.7,5.4,64,0.00,,---,0.00,VWS V14.00,2013-09-11 18:51:00,
2013-09-11 13:52:00,89.8,76.0,29.24,West,273,3.1,3.1,64,0.00,,---,0.00,VWS V14.00,2013-09-11 18:52:00,
2013-09-11 13:53:00,89.6,75.8,29.24,WSW,257,4.0,5.8,64,0.00,,---,0.00,VWS V14.00,2013-09-11 18:53:00,
2013-09-11 13:54:00,89.4,75.6,29.26,WSW,258,2.7,4.0,64,0.00,,---,0.00,VWS V14.00,2013-09-11 18:54:00,
2013-09-11 13:55:00,89.1,75.3,29.26,West,272,0.0,2.7,64,0.00,,---,0.00,VWS V14.00,2013-09-11 18:55:00,
2013-09-11 13:56:00,89.1,75.3,29.26,WSW,249,3.1,3.1,64,0.00,,---,0.00,VWS V14.00,2013-09-11 18:56:00,
2013-09-11 13:57:00,88.9,75.1,29.26,West,264,3.1,4.9,64,0.00,,---,0.00,VWS V14.00,2013-09-11 18:57:00,
2013-09-11 13:58:00,88.9,75.1,29.26,West,264,2.2,3.1,64,0.00,,---,0.00,VWS V14.00,2013-09-11 18:58:00,
2013-09-11 13:59:00,88.9,75.1,29.26,West,264,2.7,2.7,64,0.00,,---,0.00,VWS V14.00,2013-09-11 18:59:00,
2013-09-11 14:00:00,89.1,75.3,29.26,SW,228,3.6,4.9,64,0.00,,---,0.00,VWS V14.00,2013-09-11 19:00:00,
2013-09-11 14:01:00,89.1,75.3,29.26,SSW,197,3.6,4.9,64,0.00,,---,0.00,VWS V14.00,2013-09-11 19:01:00,
2013-09-11 14:02:00,89.1,75.3,29.26,SSW,198,4.0,4.0,64,0.00,,---,0.00,VWS V14.00,2013-09-11 19:02:00,
2013-09-11 14:03:00,89.1,75.3,29.26,SSW,205,4.0,4.0,64,0.00,,---,0.00,VWS V14.00,2013-09-11 19:03:00,
2013-09-11 14:04:00,89.1,75.3,29.26,West,267,3.6,4.0,64,0.00,,---,0.00,VWS V14.00,2013-09-11 19:04:00,
2013-09-11 14:05:00,89.1,75.3,29.26,West,261,3.1,3.1,64,0.00,,---,0.00,VWS V14.00,2013-09-11 19:05:00,
2013-09-11 14:06:00,89.1,75.3,29.26,West,259,3.6,3.6,64,0.00,,---,0.00,VWS V14.00,2013-09-11 19:06:00,
2013-09-11 14:07:00,88.9,75.1,29.26,West,265,0.0,5.4,64,0.00,,---,0.00,VWS V14.00,2013-09-11 19:07:00,
2013-09-11 14:08:00,88.7,75.0,29.26,West,262,0.0,0.0,64,0.00,,---,0.00,VWS V14.00,2013-09-11 19:08:00,
2013-09-11 14:09:00,88.9,75.1,29.26,SW,220,0.0,0.0,64,0.00,,---,0.00,VWS V14.00,2013-09-11 19:09:00,
2013-09-11 14:10:00,89.1,75.3,29.26,WSW,246,0.0,0.0,64,0.00,,---,0.00,VWS V14.00,2013-09-11 19:10:00,
2013-09-11 14:11:00,89.1,75.3,29.26,WSW,256,5.4,5.4,64,0.00,,---,0.00,VWS V14.00,2013-09-11 19:11:00,
2013-09-11 14:12:00,88.9,75.1,29.26,NW,305,3.6,5.4,64,0.00,,---,0.00,VWS V14.00,2013-09-11 19:12:00,
2013-09-11 14:13:00,88.9,75.1,29.26,West,262,2.7,4.0,64,0.00,,---,0.00,VWS V14.00,2013-09-11 19:13:00,
2013-09-11 14:14:00,88.9,75.1,29.26,SSW,213,0.0,3.6,64,0.00,,---,0.00,VWS V14.00,2013-09-11 19:14:00,
2013-09-11 14:15:00,89.1,75.3,29.26,WSW,243,0.0,0.0,64,0.00,,---,0.00,VWS V14.00,2013-09-11 19:15:00,
2013-09-11 14:16:00,89.1,75.3,29.26,WSW,256,0.0,0.0,64,0.00,,---,0.00,VWS V14.00,2013-09-11 19:16:00,
2013-09-11 14:17:00,89.1,75.3,29.26,WSW,253,2.7,2.7,64,0.00,,---,0.00,VWS V14.00,2013-09-11 19:17:00,
2013-09-11 14:18:00,89.1,75.3,29.26,West,269,4.0,5.4,64,0.00,,---,0.00,VWS V14.00,2013-09-11 19:18:00,
2013-09-11 14:19:00,89.1,75.3,29.26,SSW,196,3.6,4.0,64,0.00,,---,0.00,VWS V14.00,2013-09-11 19:19:00,
2013-09-11 14:20:00,89.1,75.3,29.26,SW,222,2.2,4.0,64,0.00,,---,0.00,VWS V14.00,2013-09-11 19:20:00,
2013-09-11 14:21:00,89.2,75.5,29.26,SSW,210,4.9,4.9,64,0.00,,---,0.00,VWS V14.00,2013-09-11 19:21:00,
2013-09-11 14:22:00,89.2,75.5,29.26,SSW,210,3.1,4.9,64,0.00,,---,0.00,VWS V14.00,2013-09-11 19:22:00,
2013-09-11 14:23:00,89.2,75.5,29.26,SW,221,3.1,5.8,64,0.00,,---,0.00,VWS V14.00,2013-09-11 19:23:00,
2013-09-11 14:24:00,89.4,75.6,29.26,SSW,206,0.0,3.1,64,0.00,,---,0.00,VWS V14.00,2013-09-11 19:24:00,
2013-09-11 14:25:00,89.4,75.6,29.23,WSW,246,0.0,0.0,64,0.00,,---,0.00,VWS V14.00,2013-09-11 19:25:00,
2013-09-11 14:26:00,89.6,75.8,29.24,West,272,0.0,0.0,64,0.00,,---,0.00,VWS V14.00,2013-09-11 19:26:00,
2013-09-11 14:27:00,89.6,75.8,29.24,SSW,213,0.0,0.0,64,0.00,,---,0.00,VWS V14.00,2013-09-11 19:27:00,
2013-09-11 14:28:00,89.8,76.0,29.24,SSW,202,3.6,3.6,64,0.00,,---,0.00,VWS V14.00,2013-09-11 19:28:00,
2013-09-11 14:29:00,90.0,76.2,29.24,SSW,209,3.1,3.6,64,0.00,,---,0.00,VWS V14.00,2013-09-11 19:29:00,
2013-09-11 14:30:00,90.0,76.2,29.23,West,264,4.0,4.0,64,0.00,,---,0.00,VWS V14.00,2013-09-11 19:30:00,
2013-09-11 14:31:00,90.0,76.2,29.24,SW,222,4.0,4.0,64,0.00,,---,0.00,VWS V14.00,2013-09-11 19:31:00,
2013-09-11 14:32:00,90.0,76.2,29.24,West,262,4.9,4.9,64,0.00,,---,0.00,VWS V14.00,2013-09-11 19:32:00,
2013-09-11 14:33:00,90.0,76.2,29.24,West,265,2.7,5.4,64,0.00,,---,0.00,VWS V14.00,2013-09-11 19:33:00,
2013-09-11 14:34:00,90.0,76.2,29.24,SSW,213,3.6,4.0,64,0.00,,---,0.00,VWS V14.00,2013-09-11 19:34:00,
2013-09-11 14:35:00,90.7,76.8,29.23,WSW,250,4.0,4.0,64,0.00,,---,0.00,VWS V14.00,2013-09-11 19:35:00,
2013-09-11 14:36:00,90.7,76.8,29.24,WSW,248,3.1,4.0,64,0.00,,---,0.00,VWS V14.00,2013-09-11 19:36:00,
2013-09-11 14:37:00,90.9,77.0,29.24,WSW,248,0.0,3.1,64,0.00,,---,0.00,VWS V14.00,2013-09-11 19:37:00,
2013-09-11 14:38:00,91.4,77.0,29.24,SE,144,4.9,5.4,63,0.00,,---,0.00,VWS V14.00,2013-09-11 19:38:00,
2013-09-11 14:39:00,91.6,77.2,29.24,SW,227,4.9,4.9,63,0.00,,---,0.00,VWS V14.00,2013-09-11 19:39:00,
2013-09-11 14:40:00,92.7,78.2,29.23,WSW,251,3.6,4.0,63,0.00,,---,0.00,VWS V14.00,2013-09-11 19:40:00,
2013-09-11 14:41:00,92.8,78.4,29.24,West,261,2.7,4.0,63,0.00,,---,0.00,VWS V14.00,2013-09-11 19:41:00,
2013-09-11 14:42:00,92.8,78.4,29.24,WSW,240,3.1,5.8,63,0.00,,---,0.00,VWS V14.00,2013-09-11 19:42:00,
2013-09-11 14:43:00,93.0,78.6,29.24,West,281,3.1,4.9,63,0.00,,---,0.00,VWS V14.00,2013-09-11 19:43:00,
2013-09-11 14:44:00,93.0,78.6,29.24,South,183,3.6,4.0,63,0.00,,---,0.00,VWS V14.00,2013-09-11 19:44:00,
2013-09-11 14:45:00,93.2,78.7,29.23,WSW,242,0.0,0.0,63,0.00,,---,0.00,VWS V14.00,2013-09-11 19:45:00,
2013-09-11 14:46:00,93.4,78.9,29.24,WSW,243,0.0,0.0,63,0.00,,---,0.00,VWS V14.00,2013-09-11 19:46:00,
2013-09-11 14:47:00,93.6,79.1,29.24,South,186,2.7,2.7,63,0.00,,---,0.00,VWS V14.00,2013-09-11 19:47:00,
2013-09-11 14:48:00,93.7,79.2,29.24,West,275,4.0,4.0,63,0.00,,---,0.00,VWS V14.00,2013-09-11 19:48:00,
2013-09-11 14:49:00,93.9,79.4,29.24,SW,236,7.2,7.2,63,0.00,,---,0.00,VWS V14.00,2013-09-11 19:49:00,
2013-09-11 14:50:00,93.7,79.2,29.23,WNW,290,0.0,4.0,63,0.00,,---,0.00,VWS V14.00,2013-09-11 19:50:00,
2013-09-11 14:51:00,93.6,79.1,29.24,WNW,290,0.0,4.0,63,0.00,,---,0.00,VWS V14.00,2013-09-11 19:51:00,
2013-09-11 14:52:00,93.6,79.1,29.24,West,260,0.0,0.0,63,0.00,,---,0.00,VWS V14.00,2013-09-11 19:52:00,
2013-09-11 14:53:00,93.6,79.1,29.24,West,266,0.0,0.0,63,0.00,,---,0.00,VWS V14.00,2013-09-11 19:53:00,
2013-09-11 14:54:00,93.7,79.2,29.24,WSW,243,2.7,4.0,63,0.00,,---,0.00,VWS V14.00,2013-09-11 19:54:00,
2013-09-11 14:55:00,94.3,79.8,29.23,South,187,3.6,3.6,63,0.00,,---,0.00,VWS V14.00,2013-09-11 19:55:00,
2013-09-11 14:56:00,94.3,79.8,29.24,South,183,2.7,3.6,63,0.00,,---,0.00,VWS V14.00,2013-09-11 19:56:00,
2013-09-11 14:57:00,94.3,79.8,29.24,SSW,207,4.0,6.3,63,0.00,,---,0.00,VWS V14.00,2013-09-11 19:57:00,
2013-09-11 14:58:00,94.5,79.9,29.24,SE,145,3.1,5.8,63,0.00,,---,0.00,VWS V14.00,2013-09-11 19:58:00,
2013-09-11 14:59:00,94.5,79.9,29.24,SW,235,5.4,5.4,63,0.00,,---,0.00,VWS V14.00,2013-09-11 19:59:00,
2013-09-11 15:00:00,93.9,79.4,29.23,West,262,5.4,5.8,63,0.00,,---,0.00,VWS V14.00,2013-09-11 20:00:00,
2013-09-11 15:01:00,93.9,79.4,29.24,WNW,292,6.3,6.3,63,0.00,,---,0.00,VWS V14.00,2013-09-11 20:01:00,
2013-09-11 15:02:00,93.6,79.1,29.24,West,268,7.6,7.6,63,0.00,,---,0.00,VWS V14.00,2013-09-11 20:02:00,
2013-09-11 15:03:00,93.4,78.9,29.24,West,275,3.6,7.6,63,0.00,,---,0.00,VWS V14.00,2013-09-11 20:03:00,
2013-09-11 15:04:00,92.8,78.4,29.24,SW,217,3.1,4.0,63,0.00,,---,0.00,VWS V14.00,2013-09-11 20:04:00,
2013-09-11 15:05:00,93.2,78.7,29.23,SSW,202,5.4,8.3,63,0.00,,---,0.00,VWS V14.00,2013-09-11 20:05:00,
2013-09-11 15:06:00,93.2,78.7,29.24,SSW,211,3.6,8.3,63,0.00,,---,0.00,VWS V14.00,2013-09-11 20:06:00,
2013-09-11 15:07:00,93.6,79.1,29.24,SW,220,3.1,5.8,63,0.00,,---,0.00,VWS V14.00,2013-09-11 20:07:00,
2013-09-11 15:08:00,93.7,79.2,29.24,WSW,254,0.0,3.1,63,0.00,,---,0.00,VWS V14.00,2013-09-11 20:08:00,
2013-09-11 15:09:00,93.9,79.4,29.24,WSW,241,0.0,0.0,63,0.00,,---,0.00,VWS V14.00,2013-09-11 20:09:00,
2013-09-11 15:10:00,94.1,79.6,29.23,WSW,251,2.7,4.0,63,0.00,,---,0.00,VWS V14.00,2013-09-11 20:10:00,
2013-09-11 15:11:00,94.1,79.6,29.24,SW,218,3.1,4.0,63,0.00,,---,0.00,VWS V14.00,2013-09-11 20:11:00,
2013-09-11 15:12:00,93.9,79.4,29.24,SSW,194,3.6,6.3,63,0.00,,---,0.00,VWS V14.00,2013-09-11 20:12:00,
2013-09-11 15:13:00,93.7,79.2,29.24,SW,227,4.9,6.3,63,0.00,,---,0.00,VWS V14.00,2013-09-11 20:13:00,
2013-09-11 15:14:00,93.7,79.2,29.24,South,190,6.3,7.6,63,0.00,,---,0.00,VWS V14.00,2013-09-11 20:14:00,
2013-09-11 15:15:00,93.7,79.2,29.23,SW,218,4.0,4.9,63,0.00,,---,0.00,VWS V14.00,2013-09-11 20:15:00,
2013-09-11 15:16:00,93.7,79.2,29.24,SW,221,2.7,4.9,63,0.00,,---,0.00,VWS V14.00,2013-09-11 20:16:00,
2013-09-11 15:17:00,93.7,79.2,29.24,SSW,209,4.0,4.0,63,0.00,,---,0.00,VWS V14.00,2013-09-11 20:17:00,
2013-09-11 15:18:00,93.7,79.2,29.24,WSW,258,2.7,8.1,63,0.00,,---,0.00,VWS V14.00,2013-09-11 20:18:00,
2013-09-11 15:19:00,93.9,79.4,29.24,SW,227,2.7,2.7,63,0.00,,---,0.00,VWS V14.00,2013-09-11 20:19:00,
2013-09-11 15:20:00,94.3,79.8,29.23,WSW,258,2.7,4.9,63,0.00,,---,0.00,VWS V14.00,2013-09-11 20:20:00,
2013-09-11 15:21:00,94.3,79.8,29.24,SW,226,4.9,4.9,63,0.00,,---,0.00,VWS V14.00,2013-09-11 20:21:00,
2013-09-11 15:22:00,94.5,79.9,29.24,West,264,2.7,4.9,63,0.00,,---,0.00,VWS V14.00,2013-09-11 20:22:00,
2013-09-11 15:23:00,94.6,80.1,29.24,West,270,6.3,8.1,63,0.00,,---,0.00,VWS V14.00,2013-09-11 20:23:00,
2013-09-11 15:24:00,94.3,79.8,29.24,SSW,198,2.7,6.3,63,0.00,,---,0.00,VWS V14.00,2013-09-11 20:24:00,
2013-09-11 15:25:00,93.9,79.4,29.23,SSE,165,5.4,5.4,63,0.00,,---,0.00,VWS V14.00,2013-09-11 20:25:00,
2013-09-11 15:26:00,94.1,79.6,29.24,WSW,247,3.6,5.4,63,0.00,,---,0.00,VWS V14.00,2013-09-11 20:26:00,
2013-09-11 15:27:00,94.1,79.6,29.24,WSW,244,4.9,5.4,63,0.00,,---,0.00,VWS V14.00,2013-09-11 20:27:00,
2013-09-11 15:28:00,93.9,79.4,29.24,SW,221,5.4,6.3,63,0.00,,---,0.00,VWS V14.00,2013-09-11 20:28:00,
2013-09-11 15:29:00,94.1,79.6,29.24,WNW,288,5.4,5.8,63,0.00,,---,0.00,VWS V14.00,2013-09-11 20:29:00,
2013-09-11 15:30:00,93.7,79.2,29.23,SSW,206,5.4,6.3,63,0.00,,---,0.00,VWS V14.00,2013-09-11 20:30:00,
2013-09-11 15:31:00,93.7,79.2,29.24,WSW,258,2.2,6.3,63,0.00,,---,0.00,VWS V14.00,2013-09-11 20:31:00,
2013-09-11 15:32:00,93.7,79.2,29.24,WSW,257,0.0,2.2,63,0.00,,---,0.00,VWS V14.00,2013-09-11 20:32:00,
2013-09-11 15:33:00,94.1,79.6,29.24,West,279,2.7,4.0,63,0.00,,---,0.00,VWS V14.00,2013-09-11 20:33:00,
2013-09-11 15:34:00,94.5,79.9,29.24,West,281,2.7,3.1,63,0.00,,---,0.00,VWS V14.00,2013-09-11 20:34:00,
2013-09-11 15:35:00,94.8,80.3,29.23,SW,221,3.1,3.6,63,0.00,,---,0.00,VWS V14.00,2013-09-11 20:35:00,
2013-09-11 15:36:00,95.0,80.4,29.24,WNW,287,3.1,3.6,63,0.00,,---,0.00,VWS V14.00,2013-09-11 20:36:00,
2013-09-11 15:37:00,95.2,80.6,29.24,West,272,3.6,3.6,63,0.00,,---,0.00,VWS V14.00,2013-09-11 20:37:00,
2013-09-11 15:38:00,95.2,80.6,29.24,SW,236,0.0,3.6,63,0.00,,---,0.00,VWS V14.00,2013-09-11 20:38:00,
2013-09-11 15:39:00,95.4,80.8,29.24,WSW,251,4.0,4.0,63,0.00,,---,0.00,VWS V14.00,2013-09-11 20:39:00,
2013-09-11 15:40:00,95.0,80.4,29.23,West,262,5.8,5.8,63,0.00,,---,0.00,VWS V14.00,2013-09-11 20:40:00,
2013-09-11 15:41:00,95.0,80.4,29.24,WNW,284,5.4,5.8,63,0.00,,---,0.00,VWS V14.00,2013-09-11 20:41:00,
2013-09-11 15:42:00,94.3,79.8,29.24,West,277,5.4,5.8,63,0.00,,---,0.00,VWS V14.00,2013-09-11 20:42:00,
2013-09-11 15:43:00,94.1,79.6,29.24,SW,228,4.9,6.3,63,0.00,,---,0.00,VWS V14.00,2013-09-11 20:43:00,
2013-09-11 16:13:00,96.6,82.0,29.21,SSW,211,3.6,3.6,63,0.00,,---,0.00,VWS V14.00,2013-09-11 21:13:00,
2013-09-11 16:14:00,96.4,81.8,29.20,SSW,195,2.2,4.0,63,0.00,,---,0.00,VWS V14.01,2013-09-11 21:14:00,
2013-09-11 16:15:00,96.1,81.4,29.20,WSW,247,0.0,2.2,63,0.00,,---,0.00,VWS V14.01,2013-09-11 21:15:00,
2013-09-11 16:16:00,94.8,80.3,29.20,SSW,205,3.6,4.9,63,0.00,,---,0.00,VWS V14.01,2013-09-11 21:16:00,
2013-09-11 16:17:00,94.5,79.9,29.20,West,268,2.7,3.6,63,0.00,,---,0.00,VWS V14.01,2013-09-11 21:17:00,
2013-09-11 16:18:00,93.4,78.9,29.21,West,263,2.2,2.2,63,0.00,,---,0.00,VWS V14.00,2013-09-11 21:18:00,
2013-09-11 16:19:00,92.3,77.9,29.20,West,269,4.9,5.4,63,0.00,,---,0.00,VWS V14.01,2013-09-11 21:19:00,
2013-09-11 16:20:00,91.9,77.6,29.20,SW,228,5.4,5.8,63,0.00,,---,0.00,VWS V14.01,2013-09-11 21:20:00,
2013-09-11 16:21:00,92.3,77.9,29.20,SSW,205,2.2,5.4,63,0.00,,---,0.00,VWS V14.01,2013-09-11 21:21:00,
2013-09-11 16:22:00,93.2,78.7,29.20,SSW,206,2.2,2.2,63,0.00,,---,0.00,VWS V14.01,2013-09-11 21:22:00,
2013-09-11 16:23:00,93.7,79.2,29.21,West,270,3.6,3.6,63,0.00,,---,0.00,VWS V14.00,2013-09-11 21:23:00,
2013-09-11 16:24:00,94.5,79.9,29.20,WSW,252,5.8,5.8,63,0.00,,---,0.00,VWS V14.01,2013-09-11 21:24:00,
2013-09-11 16:25:00,94.6,80.1,29.20,WSW,253,3.6,8.7,63,0.00,,---,0.00,VWS V14.01,2013-09-11 21:25:00,
2013-09-11 16:26:00,94.8,80.3,29.20,WNW,282,5.8,6.3,63,0.00,,---,0.00,VWS V14.01,2013-09-11 21:26:00,
2013-09-11 16:27:00,94.6,80.1,29.20,WSW,250,8.7,8.7,63,0.00,,---,0.00,VWS V14.01,2013-09-11 21:27:00,
2013-09-11 16:28:00,94.6,80.1,29.21,WSW,255,4.0,4.0,63,0.00,,---,0.00,VWS V14.00,2013-09-11 21:28:00,
2013-09-11 16:29:00,94.8,80.3,29.20,West,276,4.0,4.0,63,0.00,,---,0.00,VWS V14.01,2013-09-11 21:29:00,
2013-09-11 16:30:00,95.0,80.4,29.20,West,262,5.4,5.4,63,0.00,,---,0.00,VWS V14.01,2013-09-11 21:30:00,
2013-09-11 16:31:00,95.5,80.9,29.20,WNW,301,6.3,6.3,63,0.00,,---,0.00,VWS V14.01,2013-09-11 21:31:00,
2013-09-11 16:32:00,95.9,81.3,29.20,SW,227,2.7,6.3,63,0.00,,---,0.00,VWS V14.01,2013-09-11 21:32:00,
2013-09-11 16:33:00,96.3,81.6,29.21,SSW,211,3.1,5.4,63,0.00,,---,0.00,VWS V14.00,2013-09-11 21:33:00,
2013-09-11 16:34:00,96.4,81.8,29.20,SSW,209,4.9,5.8,63,0.00,,---,0.00,VWS V14.01,2013-09-11 21:34:00,
2013-09-11 16:35:00,96.6,82.0,29.20,SW,235,5.4,7.2,63,0.00,,---,0.00,VWS V14.01,2013-09-11 21:35:00,
2013-09-11 16:36:00,97.0,81.8,29.20,SW,222,2.7,5.4,62,0.00,,---,0.00,VWS V14.01,2013-09-11 21:36:00,
2013-09-11 16:37:00,97.2,82.0,29.20,SW,230,2.7,5.4,62,0.00,,---,0.00,VWS V14.01,2013-09-11 21:37:00,
2013-09-11 16:38:00,97.2,82.0,29.21,West,265,3.6,3.6,62,0.00,,---,0.00,VWS V14.00,2013-09-11 21:38:00,
2013-09-11 16:39:00,97.0,81.8,29.20,SW,221,3.6,6.3,62,0.00,,---,0.00,VWS V14.01,2013-09-11 21:39:00,
2013-09-11 16:40:00,97.2,82.0,29.24,SW,231,4.0,5.4,62,0.00,,---,0.00,VWS V14.01,2013-09-11 21:40:00,
2013-09-11 16:41:00,97.2,82.0,29.24,WSW,237,3.6,4.0,62,0.00,,---,0.00,VWS V14.01,2013-09-11 21:41:00,
2013-09-11 16:42:00,97.2,82.0,29.24,South,190,3.6,5.4,62,0.00,,---,0.00,VWS V14.01,2013-09-11 21:42:00,
2013-09-11 16:43:00,97.5,82.3,29.23,SW,227,3.1,3.1,62,0.00,,---,0.00,VWS V14.00,2013-09-11 21:43:00,
2013-09-11 16:44:00,98.1,82.8,29.24,SW,233,4.0,5.4,62,0.00,,---,0.00,VWS V14.01,2013-09-11 21:44:00,
2013-09-11 16:45:00,97.7,82.5,29.24,WSW,248,5.8,8.1,62,0.00,,---,0.00,VWS V14.01,2013-09-11 21:45:00,
2013-09-11 16:46:00,97.2,82.0,29.24,WSW,253,4.0,5.8,62,0.00,,---,0.00,VWS V14.01,2013-09-11 21:46:00,
2013-09-11 16:47:00,96.3,81.6,29.24,SSW,206,3.6,6.3,63,0.00,,---,0.00,VWS V14.01,2013-09-11 21:47:00,
2013-09-11 16:48:00,95.7,81.1,29.23,WSW,246,3.1,4.0,63,0.00,,---,0.00,VWS V14.00,2013-09-11 21:48:00,
2013-09-11 16:49:00,95.7,81.1,29.24,SW,225,3.1,4.0,63,0.00,,---,0.00,VWS V14.01,2013-09-11 21:49:00,
2013-09-11 16:50:00,95.2,80.6,29.24,West,259,2.7,6.3,63,0.00,,---,0.00,VWS V14.01,2013-09-11 21:50:00,
2013-09-11 16:51:00,95.0,80.4,29.24,WSW,238,3.1,5.8,63,0.00,,---,0.00,VWS V14.01,2013-09-11 21:51:00,
2013-09-11 16:52:00,95.2,80.6,29.24,WNW,297,3.1,3.6,63,0.00,,---,0.00,VWS V14.01,2013-09-11 21:52:00,
2013-09-11 16:53:00,95.5,80.9,29.23,SW,236,4.0,4.0,63,0.00,,---,0.00,VWS V14.00,2013-09-11 21:53:00,
2013-09-11 16:54:00,95.7,81.1,29.24,SSW,206,4.9,6.3,63,0.00,,---,0.00,VWS V14.01,2013-09-11 21:54:00,
2013-09-11 16:55:00,95.9,81.3,29.20,SW,229,3.6,4.9,63,0.00,,---,0.00,VWS V14.01,2013-09-11 21:55:00,
2013-09-11 16:56:00,96.4,81.8,29.20,SSW,207,5.8,5.8,63,0.00,,---,0.00,VWS V14.01,2013-09-11 21:56:00,
2013-09-11 16:57:00,97.0,81.8,29.20,WSW,247,6.3,7.6,62,0.00,,---,0.00,VWS V14.01,2013-09-11 21:57:00,
2013-09-11 16:58:00,97.0,81.8,29.21,SW,231,3.6,6.3,62,0.00,,---,0.00,VWS V14.00,2013-09-11 21:58:00,
2013-09-11 16:59:00,96.6,82.0,29.20,WSW,248,3.6,4.9,63,0.00,,---,0.00,VWS V14.01,2013-09-11 21:59:00,
2013-09-11 17:00:00,95.9,81.3,29.20,SSW,195,4.0,4.9,63,0.00,,---,0.00,VWS V14.01,2013-09-11 22:00:00,
2013-09-11 17:01:00,95.0,80.4,29.20,WSW,237,4.0,4.9,63,0.00,,---,0.00,VWS V14.01,2013-09-11 22:01:00,
2013-09-11 17:02:00,94.3,79.8,29.20,SW,222,3.1,4.0,63,0.00,,---,0.00,VWS V14.01,2013-09-11 22:02:00,
2013-09-11 17:03:00,93.2,78.7,29.21,WSW,241,3.6,4.9,63,0.00,,---,0.00,VWS V14.00,2013-09-11 22:03:00,
2013-09-11 17:04:00,92.1,77.7,29.20,WSW,244,4.0,4.9,63,0.00,,---,0.00,VWS V14.01,2013-09-11 22:04:00,
2013-09-11 17:05:00,91.6,77.2,29.20,WSW,249,2.7,6.3,63,0.00,,---,0.00,VWS V14.01,2013-09-11 22:05:00,
2013-09-11 17:06:00,90.7,76.8,29.20,WSW,243,3.1,6.3,64,0.00,,---,0.00,VWS V14.01,2013-09-11 22:06:00,
2013-09-11 17:07:00,90.5,76.7,29.20,West,277,4.5,4.5,64,0.00,,---,0.00,VWS V14.01,2013-09-11 22:07:00,
2013-09-11 17:08:00,89.8,76.0,29.21,SW,222,4.0,4.0,64,0.00,,---,0.00,VWS V14.00,2013-09-11 22:08:00,
2013-09-11 17:09:00,89.4,75.6,29.20,SW,229,2.7,4.9,64,0.00,,---,0.00,VWS V14.01,2013-09-11 22:09:00,
2013-09-11 17:10:00,89.2,75.5,29.20,WSW,247,3.1,3.1,64,0.00,,---,0.00,VWS V14.01,2013-09-11 22:10:00,
2013-09-11 17:11:00,89.1,75.3,29.20,WSW,241,2.7,4.0,64,0.00,,---,0.00,VWS V14.01,2013-09-11 22:11:00,
2013-09-11 17:12:00,88.7,75.0,29.20,WSW,245,3.1,4.0,64,0.00,,---,0.00,VWS V14.01,2013-09-11 22:12:00,
2013-09-11 17:13:00,88.7,75.0,29.21,SSW,198,2.7,3.1,64,0.00,,---,0.00,VWS V14.00,2013-09-11 22:13:00,
2013-09-11 17:14:00,88.7,75.0,29.20,SW,235,2.7,6.3,64,0.00,,---,0.00,VWS V14.01,2013-09-11 22:14:00,
2013-09-11 17:15:00,88.7,75.0,29.20,SSW,208,2.7,3.6,64,0.00,,---,0.00,VWS V14.01,2013-09-11 22:15:00,
2013-09-11 17:16:00,88.7,75.0,29.20,West,259,0.0,4.0,64,0.00,,---,0.00,VWS V14.01,2013-09-11 22:16:00,
2013-09-11 17:17:00,88.7,75.0,29.20,West,259,0.0,0.0,64,0.00,,---,0.00,VWS V14.01,2013-09-11 22:17:00,
2013-09-11 17:18:00,88.9,75.1,29.21,WSW,255,0.0,0.0,64,0.00,,---,0.00,VWS V14.00,2013-09-11 22:18:00,
2013-09-11 17:19:00,89.2,75.5,29.20,West,259,0.0,0.0,64,0.00,,---,0.00,VWS V14.01,2013-09-11 22:19:00,
2013-09-11 17:20:00,89.2,75.5,29.20,WNW,290,5.8,5.8,64,0.00,,---,0.00,VWS V14.01,2013-09-11 22:20:00,
2013-09-11 17:21:00,89.6,75.8,29.20,SW,217,3.1,5.8,64,0.00,,---,0.00,VWS V14.01,2013-09-11 22:21:00,
2013-09-11 17:22:00,89.6,75.8,29.20,SW,218,2.7,3.6,64,0.00,,---,0.00,VWS V14.01,2013-09-11 22:22:00,
2013-09-11 17:23:00,89.6,75.8,29.21,WSW,253,0.0,4.0,64,0.00,,---,0.00,VWS V14.00,2013-09-11 22:23:00,
2013-09-11 17:24:00,89.8,76.0,29.20,WSW,258,3.6,3.6,64,0.00,,---,0.00,VWS V14.01,2013-09-11 22:24:00,
2013-09-11 17:25:00,89.6,75.8,29.20,SSW,208,5.4,5.4,64,0.00,,---,0.00,VWS V14.01,2013-09-11 22:25:00,
2013-09-11 17:26:00,89.6,75.8,29.20,SSW,210,2.2,5.4,64,0.00,,---,0.00,VWS V14.01,2013-09-11 22:26:00,
2013-09-11 17:27:00,89.6,75.8,29.20,WSW,239,2.7,3.1,64,0.00,,---,0.00,VWS V14.01,2013-09-11 22:27:00,
2013-09-11 17:28:00,89.6,75.8,29.21,WSW,249,4.0,4.0,64,0.00,,---,0.00,VWS V14.00,2013-09-11 22:28:00,
2013-09-11 17:29:00,89.6,75.8,29.20,NW,326,3.6,5.4,64,0.00,,---,0.00,VWS V14.01,2013-09-11 22:29:00,
2013-09-11 17:30:00,89.4,75.6,29.20,WSW,251,3.1,3.6,64,0.00,,---,0.00,VWS V14.01,2013-09-11 22:30:00,
2013-09-11 17:31:00,89.4,75.6,29.20,West,270,5.4,5.4,64,0.00,,---,0.00,VWS V14.01,2013-09-11 22:31:00,
2013-09-11 17:32:00,89.4,75.6,29.20,SW,217,0.0,5.8,64,0.00,,---,0.00,VWS V14.01,2013-09-11 22:32:00,
2013-09-11 17:33:00,89.4,75.6,29.21,WSW,248,4.0,4.0,64,0.00,,---,0.00,VWS V14.00,2013-09-11 22:33:00,
2013-09-11 17:34:00,89.4,75.6,29.20,SSW,208,5.8,5.8,64,0.00,,---,0.00,VWS V14.01,2013-09-11 22:34:00,
2013-09-11 17:35:00,89.4,75.6,29.20,SSW,208,5.8,5.8,64,0.00,,---,0.00,VWS V14.01,2013-09-11 22:35:00,
2013-09-11 17:36:00,89.4,75.6,29.20,SSW,208,5.8,5.8,64,0.00,,---,0.00,VWS V14.01,2013-09-11 22:36:00,
2013-09-11 17:37:00,89.4,75.6,29.20,SSW,213,3.1,5.8,64,0.00,,---,0.00,VWS V14.01,2013-09-11 22:37:00,
2013-09-11 17:38:00,89.4,75.6,29.21,SSW,202,5.4,5.4,64,0.00,,---,0.00,VWS V14.00,2013-09-11 22:38:00,
2013-09-11 17:39:00,89.4,75.6,29.20,WSW,254,3.6,5.4,64,0.00,,---,0.00,VWS V14.01,2013-09-11 22:39:00,
2013-09-11 17:40:00,89.4,75.6,29.20,WSW,254,3.6,3.6,64,0.00,,---,0.00,VWS V14.01,2013-09-11 22:40:00,
2013-09-11 17:41:00,89.4,75.6,29.20,SW,235,0.0,3.6,64,0.00,,---,0.00,VWS V14.01,2013-09-11 22:41:00,
2013-09-11 17:42:00,89.4,75.6,29.20,WNW,288,4.0,4.0,64,0.00,,---,0.00,VWS V14.01,2013-09-11 22:42:00,
2013-09-11 17:43:00,88.7,75.0,29.21,WNW,288,4.0,4.0,64,0.00,,---,0.00,VWS V14.00,2013-09-11 22:43:00,
2013-09-11 17:44:00,88.7,75.0,29.20,WNW,288,4.0,4.0,64,0.00,,---,0.00,VWS V14.01,2013-09-11 22:44:00,
2013-09-11 17:45:00,88.7,75.0,29.20,WNW,288,4.0,4.0,64,0.00,,---,0.00,VWS V14.01,2013-09-11 22:45:00,
2013-09-11 17:46:00,88.7,75.0,29.20,WSW,241,2.2,4.0,64,0.00,,---,0.00,VWS V14.01,2013-09-11 22:46:00,
2013-09-11 17:47:00,88.7,75.0,29.20,WSW,241,2.2,2.2,64,0.00,,---,0.00,VWS V14.01,2013-09-11 22:47:00,
2013-09-11 17:48:00,88.7,75.0,29.21,WSW,241,2.2,2.2,64,0.00,,---,0.00,VWS V14.00,2013-09-11 22:48:00,
2013-09-11 17:49:00,88.7,75.0,29.20,SW,231,3.6,3.6,64,0.00,,---,0.00,VWS V14.01,2013-09-11 22:49:00,
2013-09-11 17:50:00,88.7,75.0,29.20,West,275,4.0,4.0,64,0.00,,---,0.00,VWS V14.01,2013-09-11 22:50:00,
2013-09-11 17:51:00,88.7,75.0,29.20,West,270,3.6,4.0,64,0.00,,---,0.00,VWS V14.01,2013-09-11 22:51:00,
2013-09-11 17:52:00,88.3,74.6,29.20,West,270,3.6,3.6,64,0.00,,---,0.00,VWS V14.01,2013-09-11 22:52:00,
2013-09-11 17:53:00,88.3,74.6,29.21,WSW,246,2.7,3.6,64,0.00,,---,0.00,VWS V14.00,2013-09-11 22:53:00,
2013-09-11 17:54:00,88.2,74.4,29.20,WSW,246,2.7,2.7,64,0.00,,---,0.00,VWS V14.01,2013-09-11 22:54:00,
2013-09-11 17:55:00,88.2,74.4,29.20,WSW,238,4.0,4.0,64,0.00,,---,0.00,VWS V14.01,2013-09-11 22:55:00,
2013-09-11 17:56:00,88.2,74.4,29.20,WSW,238,4.0,4.0,64,0.00,,---,0.00,VWS V14.01,2013-09-11 22:56:00,
2013-09-11 17:57:00,88.2,74.4,29.20,SW,222,3.1,4.0,64,0.00,,---,0.00,VWS V14.01,2013-09-11 22:57:00,
2013-09-11 17:58:00,88.2,74.4,29.21,SW,222,3.1,3.1,64,0.00,,---,0.00,VWS V14.00,2013-09-11 22:58:00,
2013-09-11 17:59:00,88.2,74.4,29.20,SW,222,3.1,3.1,64,0.00,,---,0.00,VWS V14.01,2013-09-11 22:59:00,
2013-09-11 18:00:00,88.2,74.4,29.20,WSW,241,3.1,3.1,64,0.00,,---,0.00,VWS V14.01,2013-09-11 23:00:00,
2013-09-11 18:01:00,88.2,74.4,29.20,WSW,241,3.1,3.1,64,0.00,,---,0.00,VWS V14.01,2013-09-11 23:01:00,
2013-09-11 18:02:00,88.2,74.4,29.20,WSW,241,3.1,3.1,64,0.00,,---,0.00,VWS V14.01,2013-09-11 23:02:00,
2013-09-11 18:03:00,88.2,74.4,29.21,WSW,241,3.1,3.1,64,0.00,,---,0.00,VWS V14.00,2013-09-11 23:03:00,
2013-09-11 18:04:00,88.2,74.4,29.20,SW,214,3.6,3.6,64,0.00,,---,0.00,VWS V14.01,2013-09-11 23:04:00,
2013-09-11 18:05:00,88.2,74.4,29.20,WSW,248,3.1,3.6,64,0.00,,---,0.00,VWS V14.01,2013-09-11 23:05:00,
2013-09-11 18:06:00,88.2,74.4,29.20,WSW,248,3.1,3.1,64,0.00,,---,0.00,VWS V14.01,2013-09-11 23:06:00,
2013-09-11 18:07:00,88.2,74.4,29.20,WSW,244,5.4,5.4,64,0.00,,---,0.00,VWS V14.01,2013-09-11 23:07:00,
2013-09-11 18:08:00,88.2,74.4,29.21,SW,217,3.6,5.4,64,0.00,,---,0.00,VWS V14.00,2013-09-11 23:08:00,
2013-09-11 18:09:00,87.3,74.1,29.20,SW,217,3.6,3.6,65,0.00,,---,0.00,VWS V14.01,2013-09-11 23:09:00,
2013-09-11 18:34:00,87.1,73.9,29.21,SW,216,0.0,0.0,65,0.00,,---,0.00,VWS V14.01,2013-09-11 23:34:00,
2013-09-11 18:35:00,86.9,73.7,29.20,WSW,252,0.0,2.2,65,0.00,,---,0.00,VWS V14.01,2013-09-11 23:35:00,
2013-09-11 18:45:00,84.9,71.8,29.21,WSW,245,0.0,0.0,65,0.00,,---,0.00,VWS V14.01,2013-09-11 23:45:00,
2013-09-11 18:50:00,84.4,71.3,29.21,SSW,204,0.0,0.0,65,0.00,,---,0.00,VWS V14.01,2013-09-11 23:50:00,
2013-09-11 18:55:00,83.8,70.8,29.21,SSW,204,0.0,0.0,65,0.00,,---,0.00,VWS V14.01,2013-09-11 23:55:00,
2013-09-11 19:00:00,83.5,70.5,29.21,SSW,200,0.0,0.0,65,0.00,,---,0.00,VWS V14.01,2013-09-12 00:00:00,
2013-09-11 19:05:00,83.1,70.1,29.21,WSW,239,0.0,0.0,65,0.00,,---,0.00,VWS V14.01,2013-09-12 00:05:00,
2013-09-11 19:10:00,82.9,70.0,29.21,West,279,2.7,5.4,65,0.00,,---,0.00,VWS V14.01,2013-09-12 00:10:00,
2013-09-11 19:15:00,82.8,69.8,29.21,SW,219,3.1,4.9,65,0.00,,---,0.00,VWS V14.01,2013-09-12 00:15:00,
2013-09-11 19:20:00,82.6,69.6,29.21,WSW,243,3.1,3.1,65,0.00,,---,0.00,VWS V14.01,2013-09-12 00:20:00,
2013-09-11 19:25:00,82.4,69.5,29.21,WSW,244,0.0,2.7,65,0.00,,---,0.00,VWS V14.01,2013-09-12 00:25:00,
2013-09-11 19:30:00,82.2,69.7,29.21,West,260,3.1,3.6,66,0.00,,---,0.00,VWS V14.01,2013-09-12 00:30:00,
2013-09-11 19:35:00,81.9,69.4,29.21,SW,234,0.0,3.6,66,0.00,,---,0.00,VWS V14.01,2013-09-12 00:35:00,
2013-09-11 19:40:00,81.5,69.1,29.21,SW,232,0.0,0.0,66,0.00,,---,0.00,VWS V14.01,2013-09-12 00:40:00,
2013-09-11 19:45:00,81.1,68.7,29.21,WSW,249,0.0,0.0,66,0.00,,---,0.00,VWS V14.01,2013-09-12 00:45:00,
2013-09-11 19:50:00,81.0,68.5,29.21,SW,217,0.0,0.0,66,0.00,,---,0.00,VWS V14.01,2013-09-12 00:50:00,
2013-09-11 19:55:00,80.8,68.4,29.23,SSW,199,0.0,0.0,66,0.00,,---,0.00,VWS V14.01,2013-09-12 00:55:00,
2013-09-11 20:00:00,80.6,68.2,29.23,SW,235,0.0,0.0,66,0.00,,---,0.00,VWS V14.01,2013-09-12 01:00:00,
2013-09-11 20:05:00,80.6,68.2,29.23,West,262,0.0,0.0,66,0.00,,---,0.00,VWS V14.01,2013-09-12 01:05:00,
2013-09-11 20:10:00,80.4,68.0,29.23,WSW,237,2.2,3.6,66,0.00,,---,0.00,VWS V14.01,2013-09-12 01:10:00,
2013-09-11 20:15:00,80.4,68.0,29.23,SW,214,0.0,4.9,66,0.00,,---,0.00,VWS V14.01,2013-09-12 01:15:00,
2013-09-11 20:20:00,80.2,67.9,29.23,WSW,238,3.6,4.0,66,0.00,,---,0.00,VWS V14.01,2013-09-12 01:20:00,
2013-09-11 20:25:00,80.2,67.9,29.23,West,262,3.6,3.6,66,0.00,,---,0.00,VWS V14.01,2013-09-12 01:25:00,
2013-09-11 20:30:00,80.1,67.7,29.23,West,260,2.7,2.7,66,0.00,,---,0.00,VWS V14.01,2013-09-12 01:30:00,
2013-09-11 20:35:00,79.9,67.5,29.23,SW,227,2.7,3.6,66,0.00,,---,0.00,VWS V14.01,2013-09-12 01:35:00,
2013-09-11 20:40:00,79.7,67.3,29.23,SW,232,2.2,4.0,66,0.00,,---,0.00,VWS V14.01,2013-09-12 01:40:00,
2013-09-11 20:45:00,79.7,67.3,29.23,WNW,290,8.3,8.3,66,0.00,,---,0.00,VWS V14.01,2013-09-12 01:45:00,
2013-09-11 20:50:00,79.5,67.2,29.23,West,265,0.0,0.0,66,0.00,,---,0.00,VWS V14.01,2013-09-12 01:50:00,
2013-09-11 20:55:00,79.3,67.0,29.23,SW,234,4.0,5.8,66,0.00,,---,0.00,VWS V14.01,2013-09-12 01:55:00,
2013-09-11 21:00:00,79.3,67.0,29.23,West,275,0.0,2.7,66,0.00,,---,0.00,VWS V14.01,2013-09-12 02:00:00,
2013-09-11 21:05:00,79.2,66.8,29.23,West,279,0.0,5.8,66,0.00,,---,0.00,VWS V14.01,2013-09-12 02:05:00,
2013-09-11 21:10:00,79.2,66.8,29.23,West,269,2.7,2.7,66,0.00,,---,0.00,VWS V14.01,2013-09-12 02:10:00,
2013-09-11 21:15:00,79.0,66.7,29.23,West,263,0.0,3.1,66,0.00,,---,0.00,VWS V14.01,2013-09-12 02:15:00,
2013-09-11 21:20:00,79.0,66.7,29.23,WSW,251,0.0,0.0,66,0.00,,---,0.00,VWS V14.01,2013-09-12 02:20:00,
2013-09-11 21:25:00,79.0,66.7,29.21,West,261,4.9,8.3,66,0.00,,---,0.00,VWS V14.01,2013-09-12 02:25:00,
2013-09-11 21:30:00,78.8,66.5,29.21,WSW,247,3.1,4.0,66,0.00,,---,0.00,VWS V14.01,2013-09-12 02:30:00,
2013-09-11 21:35:00,78.8,66.5,29.21,WNW,295,2.7,4.0,66,0.00,,---,0.00,VWS V14.01,2013-09-12 02:35:00,
2013-09-11 21:40:00,78.8,66.5,29.21,West,259,2.7,3.1,66,0.00,,---,0.00,VWS V14.01,2013-09-12 02:40:00,
2013-09-11 21:45:00,78.6,66.8,29.21,West,261,2.7,7.6,67,0.00,,---,0.00,VWS V14.01,2013-09-12 02:45:00,
2013-09-11 21:50:00,78.6,66.8,29.21,West,260,5.8,5.8,67,0.00,,---,0.00,VWS V14.01,2013-09-12 02:50:00,
2013-09-11 21:55:00,78.4,66.6,29.21,WSW,257,0.0,4.0,67,0.00,,---,0.00,VWS V14.01,2013-09-12 02:55:00,
2013-09-11 22:00:00,78.3,67.3,29.21,West,275,2.7,4.0,69,0.00,,---,0.00,VWS V14.01,2013-09-12 03:00:00,
2013-09-11 22:05:00,78.1,67.1,29.21,West,265,4.0,5.4,69,0.00,,---,0.00,VWS V14.01,2013-09-12 03:05:00,
2013-09-11 22:10:00,78.1,67.1,29.21,WNW,282,3.6,4.0,69,0.00,,---,0.00,VWS V14.01,2013-09-12 03:10:00,
2013-09-11 22:15:00,78.1,67.1,29.21,WSW,255,2.7,4.0,69,0.00,,---,0.00,VWS V14.01,2013-09-12 03:15:00,
2013-09-11 22:20:00,77.9,66.9,29.21,West,259,3.6,4.9,69,0.00,,---,0.00,VWS V14.01,2013-09-12 03:20:00,
2013-09-11 22:25:00,77.9,66.9,29.21,West,268,4.0,4.0,69,0.00,,---,0.00,VWS V14.01,2013-09-12 03:25:00,
2013-09-11 22:30:00,77.7,66.8,29.21,WSW,256,6.7,6.7,69,0.00,,---,0.00,VWS V14.01,2013-09-12 03:30:00,
2013-09-11 22:34:00,77.7,66.8,29.21,West,279,2.7,5.8,69,0.00,,---,0.00,VWS V14.01,2013-09-12 03:34:00,
2013-09-11 22:39:00,77.5,66.6,29.21,WSW,255,0.0,3.6,69,0.00,,---,0.00,VWS V14.01,2013-09-12 03:39:00,
2013-09-11 22:45:00,77.4,66.4,29.21,West,264,0.0,0.0,69,0.00,,---,0.00,VWS V14.01,2013-09-12 03:45:00,
2013-09-11 22:50:00,77.0,66.1,29.21,West,264,0.0,0.0,69,0.00,,---,0.00,VWS V14.01,2013-09-12 03:50:00,
2013-09-11 22:55:00,76.6,66.1,29.21,SW,222,0.0,0.0,70,0.00,,---,0.00,VWS V14.01,2013-09-12 03:55:00,
2013-09-11 23:00:00,76.6,66.1,29.21,West,269,4.9,4.9,70,0.00,,---,0.00,VWS V14.01,2013-09-12 04:00:00,
2013-09-11 23:01:00,76.6,66.1,29.21,SW,236,2.7,4.9,70,0.00,,---,0.00,VWS V14.01,2013-09-12 04:01:00,
2013-09-11 23:02:00,76.6,66.1,29.20,WSW,243,3.6,4.0,70,0.00,,---,0.00,VWS V14.01,2013-09-12 04:02:00,
2013-09-11 23:03:00,76.6,66.1,29.20,West,275,2.7,3.6,70,0.00,,---,0.00,VWS V14.01,2013-09-12 04:03:00,
2013-09-11 23:04:00,76.8,66.3,29.20,West,265,0.0,3.6,70,0.00,,---,0.00,VWS V14.01,2013-09-12 04:04:00,
2013-09-11 23:05:00,76.6,66.1,29.20,West,261,2.7,3.1,70,0.00,,---,0.00,VWS V14.01,2013-09-12 04:05:00,
2013-09-11 23:06:00,76.6,66.1,29.21,WSW,253,2.7,2.7,70,0.00,,---,0.00,VWS V14.01,2013-09-12 04:06:00,
2013-09-11 23:07:00,76.8,66.3,29.20,WSW,245,6.3,6.3,70,0.00,,---,0.00,VWS V14.01,2013-09-12 04:07:00,
2013-09-11 23:08:00,76.8,66.3,29.20,WSW,253,5.4,6.3,70,0.00,,---,0.00,VWS V14.01,2013-09-12 04:08:00,
2013-09-11 23:09:00,76.8,66.3,29.20,WSW,255,4.9,8.1,70,0.00,,---,0.00,VWS V14.01,2013-09-12 04:09:00,
2013-09-11 23:10:00,76.8,66.3,29.20,West,265,4.0,4.9,70,0.00,,---,0.00,VWS V14.01,2013-09-12 04:10:00,
2013-09-11 23:11:00,76.8,66.3,29.21,West,261,2.7,2.7,70,0.00,,---,0.00,VWS V14.01,2013-09-12 04:11:00,
2013-09-11 23:12:00,76.8,66.3,29.20,WSW,240,4.0,4.0,70,0.00,,---,0.00,VWS V14.01,2013-09-12 04:12:00,
2013-09-11 23:13:00,76.6,66.1,29.20,WSW,242,2.7,4.0,70,0.00,,---,0.00,VWS V14.01,2013-09-12 04:13:00,
2013-09-11 23:14:00,76.6,66.1,29.20,SW,219,3.6,4.0,70,0.00,,---,0.00,VWS V14.01,2013-09-12 04:14:00,
2013-09-11 23:15:00,76.6,66.1,29.20,West,259,4.9,4.9,70,0.00,,---,0.00,VWS V14.01,2013-09-12 04:15:00,
2013-09-11 23:16:00,76.6,66.1,29.21,WSW,245,2.7,2.7,70,0.00,,---,0.00,VWS V14.01,2013-09-12 04:16:00,
2013-09-11 23:17:00,76.6,66.1,29.20,WSW,257,3.6,5.8,70,0.00,,---,0.00,VWS V14.01,2013-09-12 04:17:00,
2013-09-11 23:18:00,76.6,66.1,29.20,SSW,196,2.2,6.3,70,0.00,,---,0.00,VWS V14.01,2013-09-12 04:18:00,
2013-09-11 23:19:00,76.5,66.0,29.20,SW,226,3.1,3.6,70,0.00,,---,0.00,VWS V14.01,2013-09-12 04:19:00,
2013-09-11 23:20:00,76.5,66.0,29.20,SW,215,2.7,5.8,70,0.00,,---,0.00,VWS V14.01,2013-09-12 04:20:00,
2013-09-11 23:21:00,76.5,66.0,29.21,WNW,284,3.6,4.9,70,0.00,,---,0.00,VWS V14.01,2013-09-12 04:21:00,
2013-09-11 23:22:00,76.5,66.0,29.20,West,260,2.7,5.4,70,0.00,,---,0.00,VWS V14.01,2013-09-12 04:22:00,
2013-09-11 23:23:00,76.5,66.0,29.20,SSW,198,2.7,3.1,70,0.00,,---,0.00,VWS V14.01,2013-09-12 04:23:00,
2013-09-11 23:24:00,76.5,66.0,29.20,West,260,2.7,3.6,70,0.00,,---,0.00,VWS V14.01,2013-09-12 04:24:00,
2013-09-11 23:25:00,76.5,66.0,29.20,West,271,3.6,5.4,70,0.00,,---,0.00,VWS V14.01,2013-09-12 04:25:00,
2013-09-11 23:26:00,76.5,66.0,29.21,West,260,0.0,5.4,70,0.00,,---,0.00,VWS V14.01,2013-09-12 04:26:00,
2013-09-11 23:27:00,76.5,66.0,29.20,West,260,5.4,5.4,70,0.00,,---,0.00,VWS V14.01,2013-09-12 04:27:00,
2013-09-11 23:28:00,76.5,66.0,29.20,West,268,4.0,5.4,70,0.00,,---,0.00,VWS V14.01,2013-09-12 04:28:00,
2013-09-11 23:29:00,76.3,65.8,29.20,West,261,3.1,4.9,70,0.00,,---,0.00,VWS V14.01,2013-09-12 04:29:00,
2013-09-11 23:30:00,76.3,65.8,29.20,WSW,257,2.7,5.4,70,0.00,,---,0.00,VWS V14.01,2013-09-12 04:30:00,
2013-09-11 23:31:00,76.3,65.8,29.21,West,263,3.6,3.6,70,0.00,,---,0.00,VWS V14.01,2013-09-12 04:31:00,
2013-09-11 23:32:00,76.3,65.8,29.20,WSW,250,2.7,3.6,70,0.00,,---,0.00,VWS V14.01,2013-09-12 04:32:00,
2013-09-11 23:33:00,76.1,65.6,29.20,WSW,257,3.1,4.0,70,0.00,,---,0.00,VWS V14.01,2013-09-12 04:33:00,
2013-09-11 23:34:00,76.1,65.6,29.20,WSW,238,2.2,4.0,70,0.00,,---,0.00,VWS V14.01,2013-09-12 04:34:00,
2013-09-11 23:35:00,76.1,65.6,29.20,WSW,239,0.0,2.7,70,0.00,,---,0.00,VWS V14.01,2013-09-12 04:35:00,
2013-09-11 23:36:00,76.1,65.6,29.21,WSW,247,7.6,7.6,70,0.00,,---,0.00,VWS V14.01,2013-09-12 04:36:00,
2013-09-11 23:37:00,76.1,66.0,29.20,WNW,288,2.7,7.6,71,0.00,,---,0.00,VWS V14.01,2013-09-12 04:37:00,
2013-09-11 23:38:00,76.1,66.0,29.20,West,268,2.7,3.6,71,0.00,,---,0.00,VWS V14.01,2013-09-12 04:38:00,
2013-09-11 23:39:00,76.1,66.0,29.20,West,268,3.1,3.6,71,0.00,,---,0.00,VWS V14.01,2013-09-12 04:39:00,
2013-09-11 23:40:00,76.1,66.0,29.18,WSW,255,4.0,4.0,71,0.00,,---,0.00,VWS V14.01,2013-09-12 04:40:00,
2013-09-11 23:41:00,76.1,66.0,29.18,West,262,5.4,5.4,71,0.00,,---,0.00,VWS V14.01,2013-09-12 04:41:00,
2013-09-11 23:42:00,76.1,66.0,29.18,West,280,3.1,5.4,71,0.00,,---,0.00,VWS V14.01,2013-09-12 04:42:00,
2013-09-11 23:43:00,76.1,66.0,29.18,West,262,5.8,5.8,71,0.00,,---,0.00,VWS V14.01,2013-09-12 04:43:00,
2013-09-11 23:44:00,76.1,66.0,29.18,WNW,284,5.4,5.8,71,0.00,,---,0.00,VWS V14.01,2013-09-12 04:44:00,
2013-09-11 23:45:00,75.9,65.8,29.18,WNW,287,3.1,5.8,71,0.00,,---,0.00,VWS V14.01,2013-09-12 04:45:00,
2013-09-11 23:46:00,75.9,65.8,29.18,West,267,3.1,3.6,71,0.00,,---,0.00,VWS V14.01,2013-09-12 04:46:00,
2013-09-11 23:47:00,75.9,65.8,29.18,West,265,3.1,6.3,71,0.00,,---,0.00,VWS V14.01,2013-09-12 04:47:00,
2013-09-11 23:48:00,75.9,65.8,29.18,West,260,2.7,4.0,71,0.00,,---,0.00,VWS V14.01,2013-09-12 04:48:00,
2013-09-11 23:49:00,75.9,65.8,29.18,West,281,4.9,4.9,71,0.00,,---,0.00,VWS V14.01,2013-09-12 04:49:00,
2013-09-11 23:50:00,75.9,65.8,29.18,WSW,258,4.9,5.8,71,0.00,,---,0.00,VWS V14.01,2013-09-12 04:50:00,
2013-09-11 23:51:00,75.9,65.8,29.18,West,259,2.7,4.0,71,0.00,,---,0.00,VWS V14.01,2013-09-12 04:51:00,
2013-09-11 23:52:00,75.9,65.8,29.18,SW,231,3.6,5.4,71,0.00,,---,0.00,VWS V14.01,2013-09-12 04:52:00,
2013-09-11 23:53:00,75.9,65.8,29.18,West,260,2.7,3.6,71,0.00,,---,0.00,VWS V14.01,2013-09-12 04:53:00,
2013-09-11 23:54:00,75.7,65.7,29.18,WSW,249,0.0,4.9,71,0.00,,---,0.00,VWS V14.01,2013-09-12 04:54:00,
2013-09-11 23:55:00,75.7,65.7,29.20,WSW,250,0.0,0.0,71,0.00,,---,0.00,VWS V14.01,2013-09-12 04:55:00,
2013-09-11 23:56:00,75.7,65.7,29.21,SW,221,5.4,5.4,71,0.00,,---,0.00,VWS V14.01,2013-09-12 04:56:00,
2013-09-11 23:57:00,75.7,65.7,29.20,NW,323,5.4,6.3,71,0.00,,---,0.00,VWS V14.01,2013-09-12 04:57:00,
2013-09-11 23:58:00,75.7,65.7,29.20,WSW,258,3.1,5.8,71,0.00,,---,0.00,VWS V14.01,2013-09-12 04:58:00,
2013-09-11 23:59:00,75.7,65.7,29.20,WSW,245,3.1,3.1,71,0.00,,---,0.00,VWS V14.01,2013-09-12 04:59:00,